Observation data for Panhandle on 02/14/2020      Previous  Date  Next       Current Mesonet Observations  Soil Data  Daily Summary Page  Observations in Plain Language
KPA1 140600Z 11007KT M07/M11 A3029 RMK A01 T10671105  RH  075%=      5-min Rain = 0
KPA1 140601Z 12006KT M07/M11 A3029 RMK A01 T10671105  RH  075%=      5-min Rain = 0
KPA1 140602Z 12005KT M07/M11 A3029 RMK A01 T10671105  RH  075%=      5-min Rain = 0
KPA1 140603Z 12005KT M07/M11 A3029 RMK A01 T10671105  RH  075%=      5-min Rain = 0
KPA1 140604Z 12004KT M07/M11 A3029 RMK A01 T10681105  RH  075%=      5-min Rain = 0
KPA1 140605Z 12006KT M07/M11 A3029 RMK A01 T10681105  RH  075%=      5-min Rain = 0
KPA1 140606Z 11005KT M07/M11 A3029 RMK A01 T10691105  RH  075%=      5-min Rain = 0
KPA1 140607Z 11004KT M07/M11 A3029 RMK A01 T10691105  RH  076%=      5-min Rain = 0
KPA1 140608Z 11005KT M07/M10 A3029 RMK A01 T10691104  RH  076%=      5-min Rain = 0
KPA1 140609Z 11004KT M07/M10 A3029 RMK A01 T10701104  RH  077%=      5-min Rain = 0
KPA1 140610Z 11005KT M07/M10 A3029 RMK A01 T10701103  RH  077%=      5-min Rain = 0
KPA1 140611Z 11005KT M07/M10 A3029 RMK A01 T10701103  RH  077%=      5-min Rain = 0
KPA1 140612Z 11005KT M07/M10 A3029 RMK A01 T10701103  RH  077%=      5-min Rain = 0
KPA1 140613Z 10005KT M07/M10 A3029 RMK A01 T10711104  RH  077%=      5-min Rain = 0
KPA1 140614Z 10004KT M07/M10 A3029 RMK A01 T10701103  RH  077%=      5-min Rain = 0
KPA1 140615Z 10004KT M07/M10 A3029 RMK A01 T10701102  RH  078%=      5-min Rain = 0
KPA1 140616Z 11004KT M07/M10 A3029 RMK A01 T10711103  RH  078%=      5-min Rain = 0
KPA1 140617Z 11004KT M07/M10 A3029 RMK A01 T10711103  RH  078%=      5-min Rain = 0
KPA1 140618Z 11004KT M07/M10 A303 RMK A01 T10721103  RH  078%=      5-min Rain = 0
KPA1 140619Z 10004KT M07/M10 A303 RMK A01 T10721103  RH  079%=      5-min Rain = 0
KPA1 140620Z 11003KT M07/M10 A303 RMK A01 T10731103  RH  079%=      5-min Rain = 0
KPA1 140621Z 10003KT M07/M10 A303 RMK A01 T10731103  RH  080%=      5-min Rain = 0
KPA1 140622Z 09003KT M07/M10 A303 RMK A01 T10741103  RH  080%=      5-min Rain = 0
KPA1 140623Z 10004KT M08/M10 A303 RMK A01 T10751103  RH  080%=      5-min Rain = 0
KPA1 140624Z 09004KT M08/M10 A303 RMK A01 T10751103  RH  080%=      5-min Rain = 0
KPA1 140625Z 09004KT M08/M10 A303 RMK A01 T10761104  RH  080%=      5-min Rain = 0
KPA1 140626Z 09004KT M08/M10 A303 RMK A01 T10771104  RH  081%=      5-min Rain = 0
KPA1 140627Z 09004KT M08/M10 A303 RMK A01 T10771104  RH  081%=      5-min Rain = 0
KPA1 140628Z 09004KT M08/M11 A303 RMK A01 T10771105  RH  081%=      5-min Rain = 0
KPA1 140629Z 09004KT M08/M11 A303 RMK A01 T10781105  RH  081%=      5-min Rain = 0
KPA1 140630Z 09003KT M08/M11 A303 RMK A01 T10781105  RH  081%=      5-min Rain = 0
KPA1 140631Z 09003KT M08/M11 A303 RMK A01 T10791105  RH  081%=      5-min Rain = 0
KPA1 140632Z 09003KT M08/M11 A303 RMK A01 T10791105  RH  082%=      5-min Rain = 0
KPA1 140633Z 09004KT M08/M11 A303 RMK A01 T10791105  RH  082%=      5-min Rain = 0
KPA1 140634Z 09004KT M08/M11 A303 RMK A01 T10801106  RH  082%=      5-min Rain = 0
KPA1 140635Z 09003KT M08/M11 A303 RMK A01 T10811106  RH  082%=      5-min Rain = 0
KPA1 140636Z 09003KT M08/M11 A303 RMK A01 T10811106  RH  082%=      5-min Rain = 0
KPA1 140637Z 09003KT M08/M11 A303 RMK A01 T10821106  RH  082%=      5-min Rain = 0
KPA1 140638Z 09003KT M08/M11 A303 RMK A01 T10821107  RH  083%=      5-min Rain = 0
KPA1 140639Z 09003KT M08/M11 A303 RMK A01 T10831107  RH  083%=      5-min Rain = 0
KPA1 140640Z 09003KT M08/M11 A303 RMK A01 T10841107  RH  083%=      5-min Rain = 0
KPA1 140641Z 09003KT M09/M11 A303 RMK A01 T10851108  RH  084%=      5-min Rain = 0
KPA1 140642Z 09003KT M09/M11 A303 RMK A01 T10851107  RH  084%=      5-min Rain = 0
KPA1 140643Z 09003KT M09/M11 A303 RMK A01 T10861107  RH  084%=      5-min Rain = 0
KPA1 140644Z 09003KT M09/M11 A303 RMK A01 T10861107  RH  085%=      5-min Rain = 0
KPA1 140645Z 09003KT M09/M11 A303 RMK A01 T10871107  RH  085%=      5-min Rain = 0
KPA1 140646Z 09003KT M09/M11 A303 RMK A01 T10871107  RH  086%=      5-min Rain = 0
KPA1 140647Z 09003KT M09/M11 A303 RMK A01 T10871106  RH  086%=      5-min Rain = 0
KPA1 140648Z 09003KT M09/M11 A303 RMK A01 T10871106  RH  086%=      5-min Rain = 0
KPA1 140649Z 08004KT M09/M11 A303 RMK A01 T10871106  RH  086%=      5-min Rain = 0
KPA1 140650Z 09004KT M09/M11 A303 RMK A01 T10871106  RH  086%=      5-min Rain = 0
KPA1 140651Z 09004KT M09/M11 A303 RMK A01 T10871106  RH  086%=      5-min Rain = 0
KPA1 140652Z 09004KT M09/M11 A303 RMK A01 T10871106  RH  086%=      5-min Rain = 0
KPA1 140653Z 09003KT M09/M11 A303 RMK A01 T10861105  RH  086%=      5-min Rain = 0
KPA1 140654Z 09004KT M09/M11 A303 RMK A01 T10861105  RH  086%=      5-min Rain = 0
KPA1 140655Z 09004KT M09/M11 A303 RMK A01 T10861105  RH  086%=      5-min Rain = 0
KPA1 140656Z 09004KT M09/M11 A303 RMK A01 T10861105  RH  086%=      5-min Rain = 0
KPA1 140657Z 09004KT M09/M10 A303 RMK A01 T10851104  RH  086%=      5-min Rain = 0
KPA1 140658Z 09004KT M09/M10 A303 RMK A01 T10851104  RH  086%=      5-min Rain = 0
KPA1 140659Z 09004KT M09/M10 A303 RMK A01 T10851104  RH  086%=      5-min Rain = 0
KPA1 140700Z 09004KT M09/M10 A303 RMK A01 T10851104  RH  086%=      5-min Rain = 0
KPA1 140701Z 09004KT M09/M10 A303 RMK A01 T10851104  RH  086%=      5-min Rain = 0
KPA1 140702Z 10004KT M09/M10 A303 RMK A01 T10851104  RH  086%=      5-min Rain = 0
KPA1 140703Z 10004KT M08/M10 A303 RMK A01 T10841103  RH  086%=      5-min Rain = 0
KPA1 140704Z 11003KT M08/M10 A303 RMK A01 T10841103  RH  086%=      5-min Rain = 0
KPA1 140705Z 11003KT M08/M10 A303 RMK A01 T10841102  RH  087%=      5-min Rain = 0
KPA1 140706Z 11003KT M08/M10 A303 RMK A01 T10831102  RH  087%=      5-min Rain = 0
KPA1 140707Z 12003KT M08/M10 A303 RMK A01 T10831102  RH  086%=      5-min Rain = 0
KPA1 140708Z 12002KT M08/M10 A303 RMK A01 T10831102  RH  086%=      5-min Rain = 0
KPA1 140709Z 13002KT M08/M10 A303 RMK A01 T10831101  RH  087%=      5-min Rain = 0
KPA1 140710Z 13002KT M08/M10 A303 RMK A01 T10821100  RH  087%=      5-min Rain = 0
KPA1 140711Z 14002KT M08/M10 A303 RMK A01 T10821100  RH  087%=      5-min Rain = 0
KPA1 140712Z 15002KT M08/M10 A303 RMK A01 T10811100  RH  086%=      5-min Rain = 0
KPA1 140713Z 14003KT M08/M10 A3031 RMK A01 T10821102  RH  086%=      5-min Rain = 0
KPA1 140714Z 14003KT M08/M10 A3031 RMK A01 T10841104  RH  086%=      5-min Rain = 0
KPA1 140715Z 14003KT M09/M10 A3031 RMK A01 T10851104  RH  086%=      5-min Rain = 0
KPA1 140716Z 14003KT M09/M11 A3031 RMK A01 T10861105  RH  086%=      5-min Rain = 0
KPA1 140717Z 14003KT M09/M11 A3031 RMK A01 T10871105  RH  087%=      5-min Rain = 0
KPA1 140718Z 15003KT M09/M10 A3031 RMK A01 T10871104  RH  087%=      5-min Rain = 0
KPA1 140719Z 15003KT M09/M10 A3031 RMK A01 T10871104  RH  088%=      5-min Rain = 0
KPA1 140720Z 15004KT M09/M10 A3031 RMK A01 T10871103  RH  088%=      5-min Rain = 0
KPA1 140721Z 17004KT M09/M10 A3031 RMK A01 T10861102  RH  088%=      5-min Rain = 0
KPA1 140722Z 17004KT M09/M10 A3031 RMK A01 T10861101  RH  088%=      5-min Rain = 0
KPA1 140723Z 16004KT M09/M10 A3031 RMK A01 T10851101  RH  088%=      5-min Rain = 0
KPA1 140724Z 16004KT M08/M10 A3031 RMK A01 T10841100  RH  089%=      5-min Rain = 0
KPA1 140725Z 16004KT M08/M10 A3031 RMK A01 T10841098  RH  089%=      5-min Rain = 0
KPA1 140726Z 16003KT M08/M10 A3031 RMK A01 T10831097  RH  090%=      5-min Rain = 0
KPA1 140727Z 16003KT M08/M10 A3031 RMK A01 T10821096  RH  090%=      5-min Rain = 0
KPA1 140728Z 15003KT M08/M10 A3031 RMK A01 T10811095  RH  090%=      5-min Rain = 0
KPA1 140729Z 15003KT M08/M10 A3031 RMK A01 T10801095  RH  089%=      5-min Rain = 0
KPA1 140730Z 15003KT M08/M09 A3031 RMK A01 T10791094  RH  089%=      5-min Rain = 0
KPA1 140731Z 15003KT M08/M09 A3031 RMK A01 T10791094  RH  089%=      5-min Rain = 0
KPA1 140732Z 15003KT M08/M09 A3031 RMK A01 T10781094  RH  088%=      5-min Rain = 0
KPA1 140733Z 16004KT M08/M10 A3031 RMK A01 T10771095  RH  087%=      5-min Rain = 0
KPA1 140734Z 15004KT M08/M10 A3031 RMK A01 T10761095  RH  086%=      5-min Rain = 0
KPA1 140735Z 15004KT M08/M10 A3031 RMK A01 T10751096  RH  085%=      5-min Rain = 0
KPA1 140736Z 16005KT M07/M10 A3031 RMK A01 T10741095  RH  085%=      5-min Rain = 0
KPA1 140737Z 16006KT M07/M10 A3031 RMK A01 T10741096  RH  084%=      5-min Rain = 0
KPA1 140738Z 16006KT M07/M10 A3031 RMK A01 T10731097  RH  083%=      5-min Rain = 0
KPA1 140739Z 16007KT M07/M10 A3031 RMK A01 T10721097  RH  083%=      5-min Rain = 0
KPA1 140740Z 16006KT M07/M10 A3031 RMK A01 T10721098  RH  082%=      5-min Rain = 0
KPA1 140741Z 16006KT M07/M10 A3031 RMK A01 T10721099  RH  081%=      5-min Rain = 0
KPA1 140742Z 16006KT M07/M10 A3031 RMK A01 T10721098  RH  081%=      5-min Rain = 0
KPA1 140743Z 15008KT M07/M10 A3031 RMK A01 T10721098  RH  081%=      5-min Rain = 0
KPA1 140744Z 15008KT M07/M10 A3031 RMK A01 T10721100  RH  080%=      5-min Rain = 0
KPA1 140745Z 15007KT M07/M10 A3031 RMK A01 T10721101  RH  080%=      5-min Rain = 0
KPA1 140746Z 15009KT M07/M10 A3031 RMK A01 T10721102  RH  079%=      5-min Rain = 0
KPA1 140747Z 15009KT M07/M10 A3031 RMK A01 T10721103  RH  078%=      5-min Rain = 0
KPA1 140748Z 15008KT M07/M10 A3031 RMK A01 T10721104  RH  078%=      5-min Rain = 0
KPA1 140749Z 15008KT M07/M10 A3031 RMK A01 T10721104  RH  078%=      5-min Rain = 0
KPA1 140750Z 15006KT M07/M10 A3031 RMK A01 T10721104  RH  078%=      5-min Rain = 0
KPA1 140751Z 15008KT M07/M10 A3031 RMK A01 T10721103  RH  078%=      5-min Rain = 0
KPA1 140752Z 15006KT M07/M10 A3031 RMK A01 T10721103  RH  078%=      5-min Rain = 0
KPA1 140753Z 15008KT M07/M10 A3031 RMK A01 T10721104  RH  078%=      5-min Rain = 0
KPA1 140754Z 15008KT M07/M10 A3031 RMK A01 T10711103  RH  078%=      5-min Rain = 0
KPA1 140755Z 15007KT M07/M10 A3031 RMK A01 T10711104  RH  077%=      5-min Rain = 0
KPA1 140756Z 15008KT M07/M10 A3031 RMK A01 T10711104  RH  077%=      5-min Rain = 0
KPA1 140757Z 15008KT M07/M10 A3031 RMK A01 T10711104  RH  077%=      5-min Rain = 0
KPA1 140758Z 15009KT M07/M11 A3031 RMK A01 T10711105  RH  077%=      5-min Rain = 0
KPA1 140759Z 15008KT M07/M11 A3031 RMK A01 T10711105  RH  076%=      5-min Rain = 0
KPA1 140800Z 14007KT M07/M11 A3031 RMK A01 T10701106  RH  076%=      5-min Rain = 0
KPA1 140801Z 14007KT M07/M11 A3031 RMK A01 T10701106  RH  076%=      5-min Rain = 0
KPA1 140802Z 14007KT M07/M11 A3031 RMK A01 T10701106  RH  076%=      5-min Rain = 0
KPA1 140803Z 14009KT M07/M11 A3031 RMK A01 T10701106  RH  076%=      5-min Rain = 0
KPA1 140804Z 14008KT M07/M11 A3031 RMK A01 T10701107  RH  075%=      5-min Rain = 0
KPA1 140805Z 14007KT M07/M11 A3031 RMK A01 T10701108  RH  074%=      5-min Rain = 0
KPA1 140806Z 14008KT M07/M11 A3031 RMK A01 T10701108  RH  074%=      5-min Rain = 0
KPA1 140807Z 14007KT M07/M11 A3031 RMK A01 T10701107  RH  075%=      5-min Rain = 0
KPA1 140808Z 14007KT M07/M11 A3031 RMK A01 T10701106  RH  075%=      5-min Rain = 0
KPA1 140809Z 14008KT M07/M11 A3031 RMK A01 T10691106  RH  075%=      5-min Rain = 0
KPA1 140810Z 14008KT M07/M11 A3031 RMK A01 T10691108  RH  074%=      5-min Rain = 0
KPA1 140811Z 14009KT M07/M11 A3031 RMK A01 T10691108  RH  074%=      5-min Rain = 0
KPA1 140812Z 14009KT M07/M11 A3031 RMK A01 T10691109  RH  074%=      5-min Rain = 0
KPA1 140813Z 14008KT M07/M11 A3031 RMK A01 T10691109  RH  073%=      5-min Rain = 0
KPA1 140814Z 14007KT M07/M11 A3031 RMK A01 T10691109  RH  073%=      5-min Rain = 0
KPA1 140815Z 13008KT M07/M11 A3031 RMK A01 T10691108  RH  074%=      5-min Rain = 0
KPA1 140816Z 14008KT M07/M11 A3031 RMK A01 T10701108  RH  074%=      5-min Rain = 0
KPA1 140817Z 15007KT M07/M11 A3031 RMK A01 T10691108  RH  074%=      5-min Rain = 0
KPA1 140818Z 15007KT M07/M11 A3031 RMK A01 T10691108  RH  074%=      5-min Rain = 0
KPA1 140819Z 14008KT M07/M11 A3031 RMK A01 T10691107  RH  074%=      5-min Rain = 0
KPA1 140820Z 14009KT M07/M11 A3031 RMK A01 T10691108  RH  074%=      5-min Rain = 0
KPA1 140821Z 14008KT M07/M11 A3031 RMK A01 T10691109  RH  074%=      5-min Rain = 0
KPA1 140822Z 14008KT M07/M11 A3031 RMK A01 T10701109  RH  073%=      5-min Rain = 0
KPA1 140823Z 14009KT M07/M11 A3031 RMK A01 T10701109  RH  074%=      5-min Rain = 0
KPA1 140824Z 14008KT M07/M11 A3031 RMK A01 T10701110  RH  073%=      5-min Rain = 0
KPA1 140825Z 15009KT M07/M11 A3031 RMK A01 T10701109  RH  073%=      5-min Rain = 0
KPA1 140826Z 14008KT M07/M11 A3031 RMK A01 T10701109  RH  073%=      5-min Rain = 0
KPA1 140827Z 15006KT M07/M11 A3031 RMK A01 T10701109  RH  073%=      5-min Rain = 0
KPA1 140828Z 14007KT M07/M11 A3031 RMK A01 T10701109  RH  074%=      5-min Rain = 0
KPA1 140829Z 15009KT M07/M11 A303 RMK A01 T10701108  RH  074%=      5-min Rain = 0
KPA1 140830Z 14008KT M07/M11 A303 RMK A01 T10701109  RH  073%=      5-min Rain = 0
KPA1 140831Z 14008KT M07/M11 A303 RMK A01 T10701109  RH  074%=      5-min Rain = 0
KPA1 140832Z 14007KT M07/M11 A303 RMK A01 T10701109  RH  074%=      5-min Rain = 0
KPA1 140833Z 14009KT M07/M11 A303 RMK A01 T10701110  RH  073%=      5-min Rain = 0
KPA1 140834Z 14008KT M07/M11 A303 RMK A01 T10701110  RH  073%=      5-min Rain = 0
KPA1 140835Z 14009KT M07/M11 A303 RMK A01 T10701110  RH  073%=      5-min Rain = 0
KPA1 140836Z 14009KT M07/M11 A303 RMK A01 T10701111  RH  073%=      5-min Rain = 0
KPA1 140837Z 14008KT M07/M11 A303 RMK A01 T10701111  RH  072%=      5-min Rain = 0
KPA1 140838Z 14008KT M07/M11 A303 RMK A01 T10701112  RH  072%=      5-min Rain = 0
KPA1 140839Z 15009KT M07/M11 A3031 RMK A01 T10701112  RH  072%=      5-min Rain = 0
KPA1 140840Z 15008KT M07/M11 A3031 RMK A01 T10701112  RH  072%=      5-min Rain = 0
KPA1 140841Z 14008KT M07/M11 A3031 RMK A01 T10701112  RH  072%=      5-min Rain = 0
KPA1 140842Z 14009KT M07/M11 A3031 RMK A01 T10701112  RH  072%=      5-min Rain = 0
KPA1 140843Z 14009KT M07/M11 A3031 RMK A01 T10701113  RH  072%=      5-min Rain = 0
KPA1 140844Z 14008KT M07/M11 A3031 RMK A01 T10701113  RH  072%=      5-min Rain = 0
KPA1 140845Z 15008KT M07/M11 A3031 RMK A01 T10701112  RH  072%=      5-min Rain = 0
KPA1 140846Z 15009KT M07/M11 A3031 RMK A01 T10701112  RH  072%=      5-min Rain = 0
KPA1 140847Z 15009KT M07/M11 A3031 RMK A01 T10701113  RH  072%=      5-min Rain = 0
KPA1 140848Z 15010KT M07/M11 A3031 RMK A01 T10701113  RH  072%=      5-min Rain = 0
KPA1 140849Z 15010KT M07/M11 A3031 RMK A01 T10711113  RH  072%=      5-min Rain = 0
KPA1 140850Z 15010KT M07/M11 A3031 RMK A01 T10711114  RH  071%=      5-min Rain = 0
KPA1 140851Z 15008KT M07/M11 A303 RMK A01 T10711113  RH  072%=      5-min Rain = 0
KPA1 140852Z 15010KT M07/M11 A303 RMK A01 T10711112  RH  072%=      5-min Rain = 0
KPA1 140853Z 15009KT M07/M11 A303 RMK A01 T10711113  RH  072%=      5-min Rain = 0
KPA1 140854Z 15009KT M07/M11 A303 RMK A01 T10711113  RH  072%=      5-min Rain = 0
KPA1 140855Z 14007KT M07/M11 A3031 RMK A01 T10711113  RH  072%=      5-min Rain = 0
KPA1 140856Z 15008KT M07/M11 A3031 RMK A01 T10711112  RH  073%=      5-min Rain = 0
KPA1 140857Z 15008KT M07/M11 A303 RMK A01 T10711112  RH  073%=      5-min Rain = 0
KPA1 140858Z 15007KT M07/M11 A303 RMK A01 T10711112  RH  073%=      5-min Rain = 0
KPA1 140859Z 15006KT M07/M11 A303 RMK A01 T10711110  RH  074%=      5-min Rain = 0
KPA1 140900Z 15007KT M07/M11 A303 RMK A01 T10711109  RH  074%=      5-min Rain = 0
KPA1 140901Z 15008KT M07/M11 A303 RMK A01 T10711109  RH  074%=      5-min Rain = 0
KPA1 140902Z 15010KT M07/M11 A303 RMK A01 T10711110  RH  073%=      5-min Rain = 0
KPA1 140903Z 15009KT M07/M11 A303 RMK A01 T10711111  RH  073%=      5-min Rain = 0
KPA1 140904Z 15008KT M07/M11 A303 RMK A01 T10711112  RH  073%=      5-min Rain = 0
KPA1 140905Z 15009KT M07/M11 A303 RMK A01 T10711111  RH  073%=      5-min Rain = 0
KPA1 140906Z 14008KT M07/M11 A303 RMK A01 T10711111  RH  073%=      5-min Rain = 0
KPA1 140907Z 14007KT M07/M11 A303 RMK A01 T10711110  RH  074%=      5-min Rain = 0
KPA1 140908Z 15007KT M07/M11 A303 RMK A01 T10711110  RH  074%=      5-min Rain = 0
KPA1 140909Z 15007KT M07/M11 A303 RMK A01 T10711109  RH  074%=      5-min Rain = 0
KPA1 140910Z 15006KT M07/M11 A303 RMK A01 T10711109  RH  074%=      5-min Rain = 0
KPA1 140911Z 15008KT M07/M11 A303 RMK A01 T10711109  RH  074%=      5-min Rain = 0
KPA1 140912Z 15008KT M07/M11 A303 RMK A01 T10711110  RH  074%=      5-min Rain = 0
KPA1 140913Z 14008KT M07/M11 A303 RMK A01 T10711110  RH  074%=      5-min Rain = 0
KPA1 140914Z 14008KT M07/M11 A303 RMK A01 T10711110  RH  074%=      5-min Rain = 0
KPA1 140915Z 14009KT M07/M11 A303 RMK A01 T10711109  RH  074%=      5-min Rain = 0
KPA1 140916Z 14008KT M07/M11 A303 RMK A01 T10711110  RH  074%=      5-min Rain = 0
KPA1 140917Z 15009KT M07/M11 A303 RMK A01 T10711111  RH  073%=      5-min Rain = 0
KPA1 140918Z 15008KT M07/M11 A303 RMK A01 T10711111  RH  073%=      5-min Rain = 0
KPA1 140919Z 15009KT M07/M11 A303 RMK A01 T10711111  RH  073%=      5-min Rain = 0
KPA1 140920Z 14007KT M07/M11 A303 RMK A01 T10711111  RH  073%=      5-min Rain = 0
KPA1 140921Z 14009KT M07/M11 A303 RMK A01 T10711110  RH  074%=      5-min Rain = 0
KPA1 140922Z 15008KT M07/M11 A303 RMK A01 T10711110  RH  074%=      5-min Rain = 0
KPA1 140923Z 14008KT M07/M11 A303 RMK A01 T10711110  RH  074%=      5-min Rain = 0
KPA1 140924Z 14009KT M07/M11 A303 RMK A01 T10711110  RH  074%=      5-min Rain = 0
KPA1 140925Z 14008KT M07/M11 A303 RMK A01 T10711110  RH  074%=      5-min Rain = 0
KPA1 140926Z 15007KT M07/M11 A303 RMK A01 T10711110  RH  074%=      5-min Rain = 0
KPA1 140927Z 15008KT M07/M11 A303 RMK A01 T10711109  RH  074%=      5-min Rain = 0
KPA1 140928Z 14009KT M07/M11 A303 RMK A01 T10711110  RH  074%=      5-min Rain = 0
KPA1 140929Z 15008KT M07/M11 A303 RMK A01 T10711110  RH  074%=      5-min Rain = 0
KPA1 140930Z 15008KT M07/M11 A303 RMK A01 T10711110  RH  074%=      5-min Rain = 0
KPA1 140931Z 16007KT M07/M11 A303 RMK A01 T10711110  RH  074%=      5-min Rain = 0
KPA1 140932Z 15007KT M07/M11 A303 RMK A01 T10711110  RH  074%=      5-min Rain = 0
KPA1 140933Z 14007KT M07/M11 A303 RMK A01 T10711110  RH  074%=      5-min Rain = 0
KPA1 140934Z 15008KT M07/M11 A303 RMK A01 T10711110  RH  074%=      5-min Rain = 0
KPA1 140935Z 15008KT M07/M11 A303 RMK A01 T10711110  RH  074%=      5-min Rain = 0
KPA1 140936Z 15009KT M07/M11 A303 RMK A01 T10711111  RH  073%=      5-min Rain = 0
KPA1 140937Z 16009KT M07/M11 A303 RMK A01 T10711111  RH  073%=      5-min Rain = 0
KPA1 140938Z 16009KT M07/M11 A303 RMK A01 T10711111  RH  073%=      5-min Rain = 0
KPA1 140939Z 15008KT M07/M11 A303 RMK A01 T10711111  RH  073%=      5-min Rain = 0
KPA1 140940Z 15008KT M07/M11 A303 RMK A01 T10711111  RH  073%=      5-min Rain = 0
KPA1 140941Z 15009KT M07/M11 A303 RMK A01 T10711110  RH  074%=      5-min Rain = 0
KPA1 140942Z 15007KT M07/M11 A3029 RMK A01 T10711110  RH  074%=      5-min Rain = 0
KPA1 140943Z 15008KT M07/M11 A303 RMK A01 T10711110  RH  074%=      5-min Rain = 0
KPA1 140944Z 15008KT M07/M11 A3029 RMK A01 T10711110  RH  074%=      5-min Rain = 0
KPA1 140945Z 16008KT M07/M11 A3029 RMK A01 T10711110  RH  074%=      5-min Rain = 0
KPA1 140946Z 15008KT M07/M11 A3029 RMK A01 T10711110  RH  074%=      5-min Rain = 0
KPA1 140947Z 16008KT M07/M11 A3029 RMK A01 T10711111  RH  073%=      5-min Rain = 0
KPA1 140948Z 15006KT M07/M11 A3029 RMK A01 T10711111  RH  073%=      5-min Rain = 0
KPA1 140949Z 15006KT M07/M11 A3029 RMK A01 T10711110  RH  074%=      5-min Rain = 0
KPA1 140950Z 14008KT M07/M11 A3029 RMK A01 T10701109  RH  074%=      5-min Rain = 0
KPA1 140951Z 15009KT M07/M11 A3029 RMK A01 T10701109  RH  074%=      5-min Rain = 0
KPA1 140952Z 15008KT M07/M11 A3029 RMK A01 T10701110  RH  073%=      5-min Rain = 0
KPA1 140953Z 15009KT M07/M11 A3029 RMK A01 T10711110  RH  073%=      5-min Rain = 0
KPA1 140954Z 15008KT M07/M11 A3029 RMK A01 T10711110  RH  073%=      5-min Rain = 0
KPA1 140955Z 15008KT M07/M11 A3029 RMK A01 T10711110  RH  073%=      5-min Rain = 0
KPA1 140956Z 15009KT M07/M11 A3029 RMK A01 T10711110  RH  073%=      5-min Rain = 0
KPA1 140957Z 15009KT M07/M11 A3029 RMK A01 T10711111  RH  073%=      5-min Rain = 0
KPA1 140958Z 16009KT M07/M11 A3029 RMK A01 T10711111  RH  073%=      5-min Rain = 0
KPA1 140959Z 16008KT M07/M11 A3029 RMK A01 T10711111  RH  073%=      5-min Rain = 0
KPA1 141000Z 16007KT M07/M11 A3029 RMK A01 T10711111  RH  073%=      5-min Rain = 0
KPA1 141001Z 15008KT M07/M11 A3029 RMK A01 T10711110  RH  074%=      5-min Rain = 0
KPA1 141002Z 16009KT M07/M11 A3029 RMK A01 T10711110  RH  073%=      5-min Rain = 0
KPA1 141003Z 16009KT M07/M11 A3029 RMK A01 T10711111  RH  073%=      5-min Rain = 0
KPA1 141004Z 16009KT M07/M11 A3029 RMK A01 T10711111  RH  073%=      5-min Rain = 0
KPA1 141005Z 15007KT M07/M11 A3029 RMK A01 T10711111  RH  073%=      5-min Rain = 0
KPA1 141006Z 15009KT M07/M11 A3029 RMK A01 T10711110  RH  073%=      5-min Rain = 0
KPA1 141007Z 15008KT M07/M11 A3029 RMK A01 T10701110  RH  074%=      5-min Rain = 0
KPA1 141008Z 15008KT M07/M11 A3029 RMK A01 T10701110  RH  073%=      5-min Rain = 0
KPA1 141009Z 15008KT M07/M11 A3029 RMK A01 T10701109  RH  074%=      5-min Rain = 0
KPA1 141010Z 15008KT M07/M11 A3029 RMK A01 T10701108  RH  074%=      5-min Rain = 0
KPA1 141011Z 14008KT M07/M11 A3029 RMK A01 T10701108  RH  074%=      5-min Rain = 0
KPA1 141012Z 15007KT M07/M11 A3029 RMK A01 T10711108  RH  074%=      5-min Rain = 0
KPA1 141013Z 15007KT M07/M11 A3029 RMK A01 T10701107  RH  075%=      5-min Rain = 0
KPA1 141014Z 14008KT M07/M11 A3029 RMK A01 T10701107  RH  075%=      5-min Rain = 0
KPA1 141015Z 15009KT M07/M11 A3029 RMK A01 T10701107  RH  075%=      5-min Rain = 0
KPA1 141016Z 15008KT M07/M11 A3029 RMK A01 T10701107  RH  075%=      5-min Rain = 0
KPA1 141017Z 15008KT M07/M11 A3029 RMK A01 T10701107  RH  075%=      5-min Rain = 0
KPA1 141018Z 15007KT M07/M11 A3029 RMK A01 T10701107  RH  075%=      5-min Rain = 0
KPA1 141019Z 14007KT M07/M11 A3029 RMK A01 T10701106  RH  075%=      5-min Rain = 0
KPA1 141020Z 15008KT M07/M11 A3029 RMK A01 T10701105  RH  076%=      5-min Rain = 0
KPA1 141021Z 15008KT M07/M11 A3029 RMK A01 T10691105  RH  076%=      5-min Rain = 0
KPA1 141022Z 15007KT M07/M11 A3029 RMK A01 T10691105  RH  076%=      5-min Rain = 0
KPA1 141023Z 16007KT M07/M10 A3029 RMK A01 T10691104  RH  076%=      5-min Rain = 0
KPA1 141024Z 15007KT M07/M10 A3029 RMK A01 T10691104  RH  076%=      5-min Rain = 0
KPA1 141025Z 15007KT M07/M10 A3028 RMK A01 T10691104  RH  076%=      5-min Rain = 0
KPA1 141026Z 15008KT M07/M10 A3029 RMK A01 T10691104  RH  076%=      5-min Rain = 0
KPA1 141027Z 16007KT M07/M10 A3028 RMK A01 T10691104  RH  076%=      5-min Rain = 0
KPA1 141028Z 16006KT M07/M10 A3028 RMK A01 T10691104  RH  076%=      5-min Rain = 0
KPA1 141029Z 16007KT M07/M10 A3028 RMK A01 T10681103  RH  076%=      5-min Rain = 0
KPA1 141030Z 15007KT M07/M10 A3028 RMK A01 T10681102  RH  076%=      5-min Rain = 0
KPA1 141031Z 15008KT M07/M10 A3028 RMK A01 T10681103  RH  076%=      5-min Rain = 0
KPA1 141032Z 15008KT M07/M10 A3028 RMK A01 T10681103  RH  076%=      5-min Rain = 0
KPA1 141033Z 16009KT M07/M10 A3028 RMK A01 T10681103  RH  076%=      5-min Rain = 0
KPA1 141034Z 15008KT M07/M10 A3028 RMK A01 T10681104  RH  075%=      5-min Rain = 0
KPA1 141035Z 16008G13KT M07/M11 A3028 RMK A01 T10681105  RH  075%=      5-min Rain = 0
KPA1 141036Z 16012KT M07/M11 A3028 RMK A01 T10681106  RH  074%=      5-min Rain = 0
KPA1 141037Z 16012KT M07/M11 A3028 RMK A01 T10681109  RH  073%=      5-min Rain = 0
KPA1 141038Z 16012KT M07/M11 A3028 RMK A01 T10681110  RH  072%=      5-min Rain = 0
KPA1 141039Z 16010KT M07/M11 A3028 RMK A01 T10681111  RH  072%=      5-min Rain = 0
KPA1 141040Z 16011KT M07/M11 A3028 RMK A01 T10681110  RH  072%=      5-min Rain = 0
KPA1 141041Z 16010KT M07/M11 A3028 RMK A01 T10681111  RH  071%=      5-min Rain = 0
KPA1 141042Z 16011KT M07/M11 A3028 RMK A01 T10681112  RH  071%=      5-min Rain = 0
KPA1 141043Z 16009KT M07/M11 A3028 RMK A01 T10691112  RH  071%=      5-min Rain = 0
KPA1 141044Z 16011KT M07/M11 A3028 RMK A01 T10681112  RH  071%=      5-min Rain = 0
KPA1 141045Z 16011KT M07/M11 A3028 RMK A01 T10681112  RH  071%=      5-min Rain = 0
KPA1 141046Z 16011KT M07/M11 A3028 RMK A01 T10681113  RH  071%=      5-min Rain = 0
KPA1 141047Z 16012KT M07/M11 A3028 RMK A01 T10681113  RH  071%=      5-min Rain = 0
KPA1 141048Z 17011KT M07/M11 A3028 RMK A01 T10681113  RH  071%=      5-min Rain = 0
KPA1 141049Z 17012KT M07/M11 A3028 RMK A01 T10691113  RH  070%=      5-min Rain = 0
KPA1 141050Z 16012KT M07/M11 A3028 RMK A01 T10681113  RH  070%=      5-min Rain = 0
KPA1 141051Z 17012KT M07/M11 A3028 RMK A01 T10691114  RH  070%=      5-min Rain = 0
KPA1 141052Z 17012KT M07/M12 A3028 RMK A01 T10691115  RH  070%=      5-min Rain = 0
KPA1 141053Z 16012KT M07/M11 A3028 RMK A01 T10691114  RH  070%=      5-min Rain = 0
KPA1 141054Z 16011KT M07/M11 A3028 RMK A01 T10691114  RH  070%=      5-min Rain = 0
KPA1 141055Z 16011KT M07/M11 A3028 RMK A01 T10691114  RH  070%=      5-min Rain = 0
KPA1 141056Z 16012KT M07/M11 A3028 RMK A01 T10691114  RH  070%=      5-min Rain = 0
KPA1 141057Z 16011KT M07/M11 A3028 RMK A01 T10691114  RH  070%=      5-min Rain = 0
KPA1 141058Z 16011KT M07/M11 A3028 RMK A01 T10691114  RH  070%=      5-min Rain = 0
KPA1 141059Z 16011KT M07/M12 A3028 RMK A01 T10691115  RH  070%=      5-min Rain = 0
KPA1 141100Z 16011KT M07/M12 A3028 RMK A01 T10691115  RH  070%=      5-min Rain = 0
KPA1 141101Z 16011KT M07/M11 A3028 RMK A01 T10691114  RH  070%=      5-min Rain = 0
KPA1 141102Z 16010KT M07/M12 A3028 RMK A01 T10701115  RH  070%=      5-min Rain = 0
KPA1 141103Z 16011KT M07/M12 A3028 RMK A01 T10691115  RH  070%=      5-min Rain = 0
KPA1 141104Z 16010KT M07/M11 A3028 RMK A01 T10691114  RH  070%=      5-min Rain = 0
KPA1 141105Z 16010KT M07/M11 A3028 RMK A01 T10701114  RH  071%=      5-min Rain = 0
KPA1 141106Z 16010KT M07/M11 A3028 RMK A01 T10691114  RH  071%=      5-min Rain = 0
KPA1 141107Z 16010KT M07/M11 A3028 RMK A01 T10691114  RH  071%=      5-min Rain = 0
KPA1 141108Z 16008KT M07/M11 A3028 RMK A01 T10691113  RH  071%=      5-min Rain = 0
KPA1 141109Z 16010KT M07/M11 A3028 RMK A01 T10701112  RH  072%=      5-min Rain = 0
KPA1 141110Z 16011KT M07/M11 A3028 RMK A01 T10691112  RH  072%=      5-min Rain = 0
KPA1 141111Z 16010KT M07/M11 A3028 RMK A01 T10691112  RH  071%=      5-min Rain = 0
KPA1 141112Z 16008KT M07/M11 A3028 RMK A01 T10691112  RH  072%=      5-min Rain = 0
KPA1 141113Z 17008KT M07/M11 A3028 RMK A01 T10691111  RH  072%=      5-min Rain = 0
KPA1 141114Z 17010KT M07/M11 A3028 RMK A01 T10691111  RH  072%=      5-min Rain = 0
KPA1 141115Z 17010KT M07/M11 A3028 RMK A01 T10691111  RH  072%=      5-min Rain = 0
KPA1 141116Z 17011KT M07/M11 A3028 RMK A01 T10691113  RH  071%=      5-min Rain = 0
KPA1 141117Z 17011KT M07/M11 A3028 RMK A01 T10691113  RH  071%=      5-min Rain = 0
KPA1 141118Z 17011KT M07/M11 A3028 RMK A01 T10691114  RH  070%=      5-min Rain = 0
KPA1 141119Z 17011KT M07/M12 A3028 RMK A01 T10691115  RH  070%=      5-min Rain = 0
KPA1 141120Z 17011KT M07/M12 A3028 RMK A01 T10691115  RH  070%=      5-min Rain = 0
KPA1 141121Z 17012KT M07/M12 A3028 RMK A01 T10691115  RH  070%=      5-min Rain = 0
KPA1 141122Z 17012KT M07/M12 A3028 RMK A01 T10691116  RH  070%=      5-min Rain = 0
KPA1 141123Z 16013KT M07/M12 A3028 RMK A01 T10701117  RH  069%=      5-min Rain = 0
KPA1 141124Z 17012KT M07/M12 A3028 RMK A01 T10701117  RH  069%=      5-min Rain = 0
KPA1 141125Z 17011KT M07/M12 A3028 RMK A01 T10701116  RH  070%=      5-min Rain = 0
KPA1 141126Z 17010KT M07/M12 A3028 RMK A01 T10701116  RH  070%=      5-min Rain = 0
KPA1 141127Z 16010KT M07/M12 A3028 RMK A01 T10701116  RH  070%=      5-min Rain = 0
KPA1 141128Z 17010KT M07/M12 A3028 RMK A01 T10701115  RH  070%=      5-min Rain = 0
KPA1 141129Z 17009KT M07/M12 A3028 RMK A01 T10701115  RH  070%=      5-min Rain = 0
KPA1 141130Z 17010KT M07/M12 A3028 RMK A01 T10701115  RH  070%=      5-min Rain = 0
KPA1 141131Z 17009KT M07/M12 A3029 RMK A01 T10701115  RH  071%=      5-min Rain = 0
KPA1 141132Z 17010KT M07/M11 A3029 RMK A01 T10701114  RH  071%=      5-min Rain = 0
KPA1 141133Z 17010KT M07/M11 A3029 RMK A01 T10701114  RH  071%=      5-min Rain = 0
KPA1 141134Z 17010KT M07/M11 A3029 RMK A01 T10701114  RH  071%=      5-min Rain = 0
KPA1 141135Z 17010KT M07/M11 A3029 RMK A01 T10701114  RH  071%=      5-min Rain = 0
KPA1 141136Z 17009KT M07/M11 A3029 RMK A01 T10701114  RH  071%=      5-min Rain = 0
KPA1 141137Z 17009KT M07/M11 A3028 RMK A01 T10701113  RH  071%=      5-min Rain = 0
KPA1 141138Z 17007KT M07/M11 A3028 RMK A01 T10701113  RH  072%=      5-min Rain = 0
KPA1 141139Z 16009KT M07/M11 A3028 RMK A01 T10701112  RH  072%=      5-min Rain = 0
KPA1 141140Z 16010KT M07/M11 A3028 RMK A01 T10701112  RH  072%=      5-min Rain = 0
KPA1 141141Z 17011KT M07/M11 A3028 RMK A01 T10701113  RH  072%=      5-min Rain = 0
KPA1 141142Z 17008KT M07/M11 A3028 RMK A01 T10701113  RH  072%=      5-min Rain = 0
KPA1 141143Z 17009KT M07/M11 A3028 RMK A01 T10701112  RH  072%=      5-min Rain = 0
KPA1 141144Z 16007KT M07/M11 A3028 RMK A01 T10701112  RH  072%=      5-min Rain = 0
KPA1 141145Z 16008KT M07/M11 A3028 RMK A01 T10701112  RH  072%=      5-min Rain = 0
KPA1 141146Z 16009KT M07/M11 A3028 RMK A01 T10701112  RH  072%=      5-min Rain = 0
KPA1 141147Z 16008KT M07/M11 A3028 RMK A01 T10691111  RH  072%=      5-min Rain = 0
KPA1 141148Z 16010KT M07/M11 A3028 RMK A01 T10691112  RH  072%=      5-min Rain = 0
KPA1 141149Z 17009KT M07/M11 A3028 RMK A01 T10701112  RH  072%=      5-min Rain = 0
KPA1 141150Z 17010KT M07/M11 A3028 RMK A01 T10691112  RH  072%=      5-min Rain = 0
KPA1 141151Z 17010KT M07/M11 A3028 RMK A01 T10691112  RH  072%=      5-min Rain = 0
KPA1 141152Z 17011KT M07/M11 A3028 RMK A01 T10701113  RH  071%=      5-min Rain = 0
KPA1 141153Z 17010KT M07/M11 A3028 RMK A01 T10701114  RH  071%=      5-min Rain = 0
KPA1 141154Z 18009KT M07/M11 A3028 RMK A01 T10701114  RH  071%=      5-min Rain = 0
KPA1 141155Z 17010KT M07/M11 A3028 RMK A01 T10701113  RH  071%=      5-min Rain = 0
KPA1 141156Z 17011KT M07/M11 A3028 RMK A01 T10701113  RH  071%=      5-min Rain = 0
KPA1 141157Z 17009KT M07/M11 A3028 RMK A01 T10701113  RH  071%=      5-min Rain = 0
KPA1 141158Z 17012KT M07/M11 A3028 RMK A01 T10701112  RH  072%=      5-min Rain = 0
KPA1 141159Z 17012KT M07/M11 A3028 RMK A01 T10701114  RH  071%=      5-min Rain = 0
KPA1 141200Z 18011KT M07/M11 A3028 RMK A01 T10701114  RH  071%=      5-min Rain = 0
KPA1 141201Z 17011KT M07/M11 A3028 RMK A01 T10701113  RH  071%=      5-min Rain = 0
KPA1 141202Z 17010KT M07/M11 A3028 RMK A01 T10701113  RH  071%=      5-min Rain = 0
KPA1 141203Z 17012KT M07/M11 A3028 RMK A01 T10701113  RH  071%=      5-min Rain = 0
KPA1 141204Z 17011KT M07/M11 A3028 RMK A01 T10701113  RH  071%=      5-min Rain = 0
KPA1 141205Z 17011KT M07/M11 A3028 RMK A01 T10701113  RH  071%=      5-min Rain = 0
KPA1 141206Z 17010KT M07/M11 A3028 RMK A01 T10701112  RH  072%=      5-min Rain = 0
KPA1 141207Z 17009KT M07/M11 A3028 RMK A01 T10701112  RH  072%=      5-min Rain = 0
KPA1 141208Z 16010KT M07/M11 A3028 RMK A01 T10701112  RH  072%=      5-min Rain = 0
KPA1 141209Z 17012KT M07/M11 A3028 RMK A01 T10701111  RH  072%=      5-min Rain = 0
KPA1 141210Z 17010KT M07/M11 A3028 RMK A01 T10701112  RH  072%=      5-min Rain = 0
KPA1 141211Z 17009KT M07/M11 A3028 RMK A01 T10701112  RH  072%=      5-min Rain = 0
KPA1 141212Z 16010KT M07/M11 A3028 RMK A01 T10701111  RH  072%=      5-min Rain = 0
KPA1 141213Z 17008KT M07/M11 A3028 RMK A01 T10691111  RH  072%=      5-min Rain = 0
KPA1 141214Z 17008KT M07/M11 A3028 RMK A01 T10691111  RH  072%=      5-min Rain = 0
KPA1 141215Z 17010KT M07/M11 A3028 RMK A01 T10691110  RH  073%=      5-min Rain = 0
KPA1 141216Z 17011KT M07/M11 A3028 RMK A01 T10691110  RH  072%=      5-min Rain = 0
KPA1 141217Z 17010KT M07/M11 A3028 RMK A01 T10691111  RH  072%=      5-min Rain = 0
KPA1 141218Z 17011KT M07/M11 A3028 RMK A01 T10691112  RH  072%=      5-min Rain = 0
KPA1 141219Z 18011KT M07/M11 A3028 RMK A01 T10701113  RH  072%=      5-min Rain = 0
KPA1 141220Z 17011KT M07/M11 A3028 RMK A01 T10701113  RH  072%=      5-min Rain = 0
KPA1 141221Z 17012KT M07/M11 A3028 RMK A01 T10701112  RH  072%=      5-min Rain = 0
KPA1 141222Z 17012KT M07/M11 A3028 RMK A01 T10701112  RH  072%=      5-min Rain = 0
KPA1 141223Z 17011KT M07/M11 A3028 RMK A01 T10701113  RH  072%=      5-min Rain = 0
KPA1 141224Z 17011KT M07/M11 A3028 RMK A01 T10701113  RH  072%=      5-min Rain = 0
KPA1 141225Z 17010KT M07/M11 A3028 RMK A01 T10701112  RH  072%=      5-min Rain = 0
KPA1 141226Z 17009KT M07/M11 A3028 RMK A01 T10701112  RH  072%=      5-min Rain = 0
KPA1 141227Z 16009KT M07/M11 A3028 RMK A01 T10701111  RH  073%=      5-min Rain = 0
KPA1 141228Z 16010KT M07/M11 A3028 RMK A01 T10701110  RH  073%=      5-min Rain = 0
KPA1 141229Z 16010KT M07/M11 A3028 RMK A01 T10691110  RH  073%=      5-min Rain = 0
KPA1 141230Z 16011KT M07/M11 A3028 RMK A01 T10691111  RH  072%=      5-min Rain = 0
KPA1 141231Z 16011KT M07/M11 A3028 RMK A01 T10701111  RH  072%=      5-min Rain = 0
KPA1 141232Z 17009KT M07/M11 A3028 RMK A01 T10701112  RH  072%=      5-min Rain = 0
KPA1 141233Z 17009KT M07/M11 A3028 RMK A01 T10701110  RH  073%=      5-min Rain = 0
KPA1 141234Z 16010KT M07/M11 A3028 RMK A01 T10691110  RH  073%=      5-min Rain = 0
KPA1 141235Z 16011KT M07/M11 A3028 RMK A01 T10691110  RH  073%=      5-min Rain = 0
KPA1 141236Z 17012KT M07/M11 A3028 RMK A01 T10691110  RH  072%=      5-min Rain = 0
KPA1 141237Z 17010KT M07/M11 A3028 RMK A01 T10691111  RH  072%=      5-min Rain = 0
KPA1 141238Z 17009KT M07/M11 A3028 RMK A01 T10691110  RH  072%=      5-min Rain = 0
KPA1 141239Z 17008KT M07/M11 A3028 RMK A01 T10701110  RH  073%=      5-min Rain = 0
KPA1 141240Z 17010KT M07/M11 A3028 RMK A01 T10691109  RH  073%=      5-min Rain = 0
KPA1 141241Z 17010KT M07/M11 A3028 RMK A01 T10691109  RH  073%=      5-min Rain = 0
KPA1 141242Z 17009KT M07/M11 A3027 RMK A01 T10691109  RH  073%=      5-min Rain = 0
KPA1 141243Z 16011KT M07/M11 A3027 RMK A01 T10691109  RH  073%=      5-min Rain = 0
KPA1 141244Z 17010KT M07/M11 A3028 RMK A01 T10691109  RH  073%=      5-min Rain = 0
KPA1 141245Z 17009KT M07/M11 A3028 RMK A01 T10691109  RH  073%=      5-min Rain = 0
KPA1 141246Z 17012KT M07/M11 A3027 RMK A01 T10691109  RH  073%=      5-min Rain = 0
KPA1 141247Z 17012KT M07/M11 A3027 RMK A01 T10691109  RH  073%=      5-min Rain = 0
KPA1 141248Z 17011KT M07/M11 A3027 RMK A01 T10691109  RH  073%=      5-min Rain = 0
KPA1 141249Z 17010KT M07/M11 A3027 RMK A01 T10691110  RH  073%=      5-min Rain = 0
KPA1 141250Z 17009KT M07/M11 A3028 RMK A01 T10691109  RH  073%=      5-min Rain = 0
KPA1 141251Z 17011KT M07/M11 A3027 RMK A01 T10691109  RH  073%=      5-min Rain = 0
KPA1 141252Z 17010KT M07/M11 A3027 RMK A01 T10691109  RH  073%=      5-min Rain = 0
KPA1 141253Z 17012KT M07/M11 A3027 RMK A01 T10701109  RH  073%=      5-min Rain = 0
KPA1 141254Z 17010KT M07/M11 A3027 RMK A01 T10691109  RH  073%=      5-min Rain = 0
KPA1 141255Z 17011KT M07/M11 A3027 RMK A01 T10691109  RH  073%=      5-min Rain = 0
KPA1 141256Z 17012KT M07/M11 A3027 RMK A01 T10691109  RH  073%=      5-min Rain = 0
KPA1 141257Z 17012KT M07/M11 A3027 RMK A01 T10701109  RH  073%=      5-min Rain = 0
KPA1 141258Z 17012KT M07/M11 A3027 RMK A01 T10691109  RH  074%=      5-min Rain = 0
KPA1 141259Z 17011KT M07/M11 A3027 RMK A01 T10691108  RH  074%=      5-min Rain = 0
KPA1 141300Z 17010KT M07/M11 A3027 RMK A01 T10691108  RH  074%=      5-min Rain = 0
KPA1 141301Z 17012KT M07/M11 A3027 RMK A01 T10691108  RH  074%=      5-min Rain = 0
KPA1 141302Z 18012KT M07/M11 A3027 RMK A01 T10691107  RH  074%=      5-min Rain = 0
KPA1 141303Z 18011KT M07/M11 A3027 RMK A01 T10691107  RH  074%=      5-min Rain = 0
KPA1 141304Z 17010KT M07/M11 A3027 RMK A01 T10691108  RH  074%=      5-min Rain = 0
KPA1 141305Z 17010KT M07/M11 A3027 RMK A01 T10691107  RH  074%=      5-min Rain = 0
KPA1 141306Z 17010KT M07/M11 A3027 RMK A01 T10691107  RH  074%=      5-min Rain = 0
KPA1 141307Z 17010KT M07/M11 A3027 RMK A01 T10681106  RH  074%=      5-min Rain = 0
KPA1 141308Z 17008KT M07/M11 A3028 RMK A01 T10691107  RH  074%=      5-min Rain = 0
KPA1 141309Z 17008KT M07/M11 A3028 RMK A01 T10681106  RH  075%=      5-min Rain = 0
KPA1 141310Z 17011KT M07/M11 A3028 RMK A01 T10681105  RH  075%=      5-min Rain = 0
KPA1 141311Z 17011KT M07/M11 A3028 RMK A01 T10671105  RH  075%=      5-min Rain = 0
KPA1 141312Z 18010KT M07/M11 A3028 RMK A01 T10681105  RH  074%=      5-min Rain = 0
KPA1 141313Z 17010KT M07/M11 A3028 RMK A01 T10681105  RH  075%=      5-min Rain = 0
KPA1 141314Z 17011KT M07/M11 A3028 RMK A01 T10681105  RH  075%=      5-min Rain = 0
KPA1 141315Z 17010KT M07/M11 A3028 RMK A01 T10671105  RH  075%=      5-min Rain = 0
KPA1 141316Z 17010KT M07/M11 A3028 RMK A01 T10681105  RH  075%=      5-min Rain = 0
KPA1 141317Z 17011KT M07/M11 A3028 RMK A01 T10681105  RH  075%=      5-min Rain = 0
KPA1 141318Z 17014KT M07/M11 A3028 RMK A01 T10681106  RH  074%=      5-min Rain = 0
KPA1 141319Z 17011KT M07/M11 A3028 RMK A01 T10671107  RH  074%=      5-min Rain = 0
KPA1 141320Z 17012KT M07/M11 A3028 RMK A01 T10681107  RH  073%=      5-min Rain = 0
KPA1 141321Z 17011KT M07/M11 A3028 RMK A01 T10681107  RH  074%=      5-min Rain = 0
KPA1 141322Z 17011KT M07/M11 A3028 RMK A01 T10681107  RH  074%=      5-min Rain = 0
KPA1 141323Z 17013KT M07/M11 A3028 RMK A01 T10671107  RH  074%=      5-min Rain = 0
KPA1 141324Z 17013KT M07/M11 A3028 RMK A01 T10681108  RH  073%=      5-min Rain = 0
KPA1 141325Z 17012KT M07/M11 A3028 RMK A01 T10681108  RH  073%=      5-min Rain = 0
KPA1 141326Z 17011KT M07/M11 A3028 RMK A01 T10671107  RH  073%=      5-min Rain = 0
KPA1 141327Z 17013KT M07/M11 A3028 RMK A01 T10681107  RH  074%=      5-min Rain = 0
KPA1 141328Z 17013KT M07/M11 A3028 RMK A01 T10681107  RH  073%=      5-min Rain = 0
KPA1 141329Z 17014KT M07/M11 A3028 RMK A01 T10671107  RH  073%=      5-min Rain = 0
KPA1 141330Z 17013KT M07/M11 A3028 RMK A01 T10671107  RH  073%=      5-min Rain = 0
KPA1 141331Z 18012KT M07/M11 A3028 RMK A01 T10671107  RH  074%=      5-min Rain = 0
KPA1 141332Z 17013KT M07/M11 A3028 RMK A01 T10671107  RH  074%=      5-min Rain = 0
KPA1 141333Z 18012KT M07/M11 A3028 RMK A01 T10671107  RH  074%=      5-min Rain = 0
KPA1 141334Z 18012KT M07/M11 A3028 RMK A01 T10671106  RH  074%=      5-min Rain = 0
KPA1 141335Z 18013KT M07/M11 A3028 RMK A01 T10671106  RH  074%=      5-min Rain = 0
KPA1 141336Z 17012KT M07/M11 A3028 RMK A01 T10671106  RH  074%=      5-min Rain = 0
KPA1 141337Z 17012KT M07/M11 A3028 RMK A01 T10671106  RH  074%=      5-min Rain = 0
KPA1 141338Z 17011KT M07/M11 A3028 RMK A01 T10671106  RH  074%=      5-min Rain = 0
KPA1 141339Z 17012KT M07/M11 A3028 RMK A01 T10671106  RH  074%=      5-min Rain = 0
KPA1 141340Z 17012KT M07/M11 A3028 RMK A01 T10671106  RH  074%=      5-min Rain = 0
KPA1 141341Z 17013KT M07/M11 A3028 RMK A01 T10671105  RH  074%=      5-min Rain = 0
KPA1 141342Z 17012KT M07/M11 A3028 RMK A01 T10671106  RH  074%=      5-min Rain = 0
KPA1 141343Z 17014KT M07/M11 A3028 RMK A01 T10671106  RH  074%=      5-min Rain = 0
KPA1 141344Z 17014KT M07/M11 A3028 RMK A01 T10671106  RH  074%=      5-min Rain = 0
KPA1 141345Z 17011KT M07/M11 A3028 RMK A01 T10671106  RH  074%=      5-min Rain = 0
KPA1 141346Z 17012KT M07/M11 A3028 RMK A01 T10671105  RH  074%=      5-min Rain = 0
KPA1 141347Z 17013KT M07/M11 A3028 RMK A01 T10671105  RH  074%=      5-min Rain = 0
KPA1 141348Z 18011KT M07/M11 A3028 RMK A01 T10671105  RH  074%=      5-min Rain = 0
KPA1 141349Z 18013KT M07/M11 A3028 RMK A01 T10671105  RH  074%=      5-min Rain = 0
KPA1 141350Z 17010KT M07/M11 A3028 RMK A01 T10671106  RH  074%=      5-min Rain = 0
KPA1 141351Z 17010KT M07/M11 A3028 RMK A01 T10671105  RH  075%=      5-min Rain = 0
KPA1 141352Z 17012KT M07/M10 A3028 RMK A01 T10661104  RH  075%=      5-min Rain = 0
KPA1 141353Z 17012KT M07/M11 A3028 RMK A01 T10671105  RH  074%=      5-min Rain = 0
KPA1 141354Z 17010KT M07/M11 A3028 RMK A01 T10671106  RH  074%=      5-min Rain = 0
KPA1 141355Z 18013KT M07/M11 A3029 RMK A01 T10671105  RH  074%=      5-min Rain = 0
KPA1 141356Z 18013KT M07/M11 A3029 RMK A01 T10671105  RH  075%=      5-min Rain = 0
KPA1 141357Z 17012KT M07/M11 A3029 RMK A01 T10671105  RH  074%=      5-min Rain = 0
KPA1 141358Z 17013KT M07/M11 A3029 RMK A01 T10671105  RH  074%=      5-min Rain = 0
KPA1 141359Z 18012KT M07/M11 A3029 RMK A01 T10671105  RH  074%=      5-min Rain = 0
KPA1 141400Z 17013KT M07/M11 A3028 RMK A01 T10671105  RH  075%=      5-min Rain = 0
KPA1 141401Z 18014KT M07/M11 A3029 RMK A01 T10671105  RH  074%=      5-min Rain = 0
KPA1 141402Z 18012KT M07/M11 A3029 RMK A01 T10671105  RH  074%=      5-min Rain = 0
KPA1 141403Z 18011KT M07/M11 A3029 RMK A01 T10671105  RH  075%=      5-min Rain = 0
KPA1 141404Z 17011KT M07/M10 A3029 RMK A01 T10661103  RH  075%=      5-min Rain = 0
KPA1 141405Z 18013KT M07/M10 A3028 RMK A01 T10661103  RH  075%=      5-min Rain = 0
KPA1 141406Z 17013KT M07/M10 A3028 RMK A01 T10661104  RH  075%=      5-min Rain = 0
KPA1 141407Z 17014KT M07/M10 A3028 RMK A01 T10661104  RH  074%=      5-min Rain = 0
KPA1 141408Z 17014KT M07/M10 A3028 RMK A01 T10671104  RH  075%=      5-min Rain = 0
KPA1 141409Z 18013KT M07/M10 A3029 RMK A01 T10671104  RH  075%=      5-min Rain = 0
KPA1 141410Z 17013KT M07/M10 A3028 RMK A01 T10671104  RH  075%=      5-min Rain = 0
KPA1 141411Z 18013KT M07/M10 A3028 RMK A01 T10671104  RH  075%=      5-min Rain = 0
KPA1 141412Z 18013KT M07/M10 A3028 RMK A01 T10661103  RH  075%=      5-min Rain = 0
KPA1 141413Z 18013KT M07/M10 A3028 RMK A01 T10661103  RH  075%=      5-min Rain = 0
KPA1 141414Z 17012KT M07/M10 A3028 RMK A01 T10651102  RH  075%=      5-min Rain = 0
KPA1 141415Z 18012KT M07/M10 A3028 RMK A01 T10651102  RH  075%=      5-min Rain = 0
KPA1 141416Z 17014KT M07/M10 A3028 RMK A01 T10651103  RH  075%=      5-min Rain = 0
KPA1 141417Z 17013KT M07/M10 A3028 RMK A01 T10651103  RH  075%=      5-min Rain = 0
KPA1 141418Z 18012KT M07/M10 A3028 RMK A01 T10651103  RH  075%=      5-min Rain = 0
KPA1 141419Z 18013KT M07/M10 A3028 RMK A01 T10651103  RH  075%=      5-min Rain = 0
KPA1 141420Z 18014KT M07/M10 A3028 RMK A01 T10651103  RH  075%=      5-min Rain = 0
KPA1 141421Z 18011KT M07/M10 A3029 RMK A01 T10651103  RH  075%=      5-min Rain = 0
KPA1 141422Z 17013KT M07/M10 A3029 RMK A01 T10651102  RH  075%=      5-min Rain = 0
KPA1 141423Z 18015KT M07/M10 A3029 RMK A01 T10651102  RH  075%=      5-min Rain = 0
KPA1 141424Z 17013KT M07/M10 A3029 RMK A01 T10651102  RH  075%=      5-min Rain = 0
KPA1 141425Z 18013KT M07/M10 A3029 RMK A01 T10651102  RH  075%=      5-min Rain = 0
KPA1 141426Z 17012KT M06/M10 A3029 RMK A01 T10641102  RH  075%=      5-min Rain = 0
KPA1 141427Z 18015KT M06/M10 A3029 RMK A01 T10641102  RH  075%=      5-min Rain = 0
KPA1 141428Z 18012KT M07/M10 A3029 RMK A01 T10651102  RH  075%=      5-min Rain = 0
KPA1 141429Z 18014KT M07/M10 A3029 RMK A01 T10651102  RH  075%=      5-min Rain = 0
KPA1 141430Z 18015KT M06/M10 A3029 RMK A01 T10641101  RH  075%=      5-min Rain = 0
KPA1 141431Z 17013KT M06/M10 A3029 RMK A01 T10641102  RH  075%=      5-min Rain = 0
KPA1 141432Z 18014KT M06/M10 A3029 RMK A01 T10641101  RH  075%=      5-min Rain = 0
KPA1 141433Z 17013KT M06/M10 A3029 RMK A01 T10641101  RH  075%=      5-min Rain = 0
KPA1 141434Z 17014KT M06/M10 A3029 RMK A01 T10641101  RH  075%=      5-min Rain = 0
KPA1 141435Z 17011KT M06/M10 A3029 RMK A01 T10631100  RH  075%=      5-min Rain = 0
KPA1 141436Z 18012KT M06/M10 A3029 RMK A01 T10631099  RH  075%=      5-min Rain = 0
KPA1 141437Z 17012KT M06/M10 A3029 RMK A01 T10631099  RH  075%=      5-min Rain = 0
KPA1 141438Z 17012KT M06/M10 A3029 RMK A01 T10631100  RH  075%=      5-min Rain = 0
KPA1 141439Z 17012KT M06/M10 A3029 RMK A01 T10621099  RH  075%=      5-min Rain = 0
KPA1 141440Z 17012KT M06/M10 A3029 RMK A01 T10621099  RH  075%=      5-min Rain = 0
KPA1 141441Z 17014KT M06/M10 A3029 RMK A01 T10621099  RH  075%=      5-min Rain = 0
KPA1 141442Z 17014KT M06/M10 A3029 RMK A01 T10621099  RH  075%=      5-min Rain = 0
KPA1 141443Z 17014KT M06/M10 A3029 RMK A01 T10621099  RH  075%=      5-min Rain = 0
KPA1 141444Z 18012KT M06/M10 A3029 RMK A01 T10621099  RH  075%=      5-min Rain = 0
KPA1 141445Z 18014KT M06/M10 A3029 RMK A01 T10611098  RH  075%=      5-min Rain = 0
KPA1 141446Z 18016KT M06/M10 A3029 RMK A01 T10611098  RH  075%=      5-min Rain = 0
KPA1 141447Z 18013KT M06/M10 A3029 RMK A01 T10611098  RH  075%=      5-min Rain = 0
KPA1 141448Z 17013KT M06/M10 A3029 RMK A01 T10601097  RH  075%=      5-min Rain = 0
KPA1 141449Z 18013KT M06/M10 A3029 RMK A01 T10601097  RH  075%=      5-min Rain = 0
KPA1 141450Z 18013KT M06/M10 A3029 RMK A01 T10591096  RH  075%=      5-min Rain = 0
KPA1 141451Z 18014KT M06/M10 A3029 RMK A01 T10591096  RH  075%=      5-min Rain = 0
KPA1 141452Z 19015KT M06/M10 A3029 RMK A01 T10581096  RH  075%=      5-min Rain = 0
KPA1 141453Z 19016KT M06/M10 A3028 RMK A01 T10591096  RH  075%=      5-min Rain = 0
KPA1 141454Z 18016KT M06/M10 A3028 RMK A01 T10591096  RH  075%=      5-min Rain = 0
KPA1 141455Z 19016KT M06/M10 A3028 RMK A01 T10591096  RH  075%=      5-min Rain = 0
KPA1 141456Z 19016KT M06/M10 A3028 RMK A01 T10591096  RH  075%=      5-min Rain = 0
KPA1 141457Z 18012G17KT M06/M10 A3028 RMK A01 T10591096  RH  075%=      5-min Rain = 0
KPA1 141458Z 18017KT M06/M09 A3028 RMK A01 T10581094  RH  075%=      5-min Rain = 0
KPA1 141459Z 18018KT M06/M10 A3028 RMK A01 T10581096  RH  074%=      5-min Rain = 0
KPA1 141500Z 18015KT M06/M10 A3028 RMK A01 T10581097  RH  074%=      5-min Rain = 0
KPA1 141501Z 18017KT M06/M10 A3028 RMK A01 T10591097  RH  075%=      5-min Rain = 0
KPA1 141502Z 18015KT M06/M10 A3028 RMK A01 T10591097  RH  075%=      5-min Rain = 0
KPA1 141503Z 18016KT M06/M10 A3028 RMK A01 T10591096  RH  075%=      5-min Rain = 0
KPA1 141504Z 18017KT M06/M10 A3028 RMK A01 T10581096  RH  075%=      5-min Rain = 0
KPA1 141505Z 18017KT M06/M10 A3028 RMK A01 T10591096  RH  075%=      5-min Rain = 0
KPA1 141506Z 18015KT M06/M10 A3028 RMK A01 T10581096  RH  075%=      5-min Rain = 0
KPA1 141507Z 19015KT M06/M09 A3028 RMK A01 T10571094  RH  075%=      5-min Rain = 0
KPA1 141508Z 19015KT M06/M09 A3028 RMK A01 T10571093  RH  075%=      5-min Rain = 0
KPA1 141509Z 18013KT M06/M09 A3028 RMK A01 T10561092  RH  075%=      5-min Rain = 0
KPA1 141510Z 18014KT M06/M09 A3028 RMK A01 T10551092  RH  075%=      5-min Rain = 0
KPA1 141511Z 18016KT M06/M09 A3028 RMK A01 T10551093  RH  074%=      5-min Rain = 0
KPA1 141512Z 18014KT M06/M09 A3028 RMK A01 T10551093  RH  074%=      5-min Rain = 0
KPA1 141513Z 19015KT M06/M09 A3028 RMK A01 T10551093  RH  075%=      5-min Rain = 0
KPA1 141514Z 19015KT M06/M09 A3028 RMK A01 T10551092  RH  075%=      5-min Rain = 0
KPA1 141515Z 18015KT M05/M09 A3028 RMK A01 T10541091  RH  075%=      5-min Rain = 0
KPA1 141516Z 18017KT M05/M09 A3029 RMK A01 T10541091  RH  075%=      5-min Rain = 0
KPA1 141517Z 17016KT M05/M09 A3029 RMK A01 T10541092  RH  075%=      5-min Rain = 0
KPA1 141518Z 18014KT M05/M09 A3028 RMK A01 T10541092  RH  075%=      5-min Rain = 0
KPA1 141519Z 18016KT M05/M09 A3029 RMK A01 T10531091  RH  075%=      5-min Rain = 0
KPA1 141520Z 18016KT M05/M09 A3029 RMK A01 T10541091  RH  075%=      5-min Rain = 0
KPA1 141521Z 18014KT M06/M09 A3029 RMK A01 T10551091  RH  075%=      5-min Rain = 0
KPA1 141522Z 19018KT M05/M09 A3029 RMK A01 T10531089  RH  076%=      5-min Rain = 0
KPA1 141523Z 19018KT M05/M09 A3029 RMK A01 T10531089  RH  076%=      5-min Rain = 0
KPA1 141524Z 19014KT M05/M09 A3029 RMK A01 T10541089  RH  076%=      5-min Rain = 0
KPA1 141525Z 19016KT M05/M09 A3029 RMK A01 T10541089  RH  077%=      5-min Rain = 0
KPA1 141526Z 18013G19KT M05/M09 A3029 RMK A01 T10541089  RH  077%=      5-min Rain = 0
KPA1 141527Z 18012KT M05/M09 A3029 RMK A01 T10521086  RH  077%=      5-min Rain = 0
KPA1 141528Z 19018KT M05/M09 A3029 RMK A01 T10511085  RH  077%=      5-min Rain = 0
KPA1 141529Z 19019KT M05/M09 A3029 RMK A01 T10521088  RH  076%=      5-min Rain = 0
KPA1 141530Z 18018KT M05/M09 A3029 RMK A01 T10531088  RH  076%=      5-min Rain = 0
KPA1 141531Z 19015KT M05/M09 A3029 RMK A01 T10541088  RH  077%=      5-min Rain = 0
KPA1 141532Z 18015KT M05/M09 A3029 RMK A01 T10541088  RH  077%=      5-min Rain = 0
KPA1 141533Z 19013G20KT M05/M09 A3029 RMK A01 T10541087  RH  077%=      5-min Rain = 0
KPA1 141534Z 18016KT M05/M09 A3029 RMK A01 T10521086  RH  077%=      5-min Rain = 0
KPA1 141535Z 18015KT M05/M09 A3029 RMK A01 T10531087  RH  077%=      5-min Rain = 0
KPA1 141536Z 18018KT M05/M09 A3029 RMK A01 T10531087  RH  077%=      5-min Rain = 0
KPA1 141537Z 18016KT M05/M09 A3029 RMK A01 T10541088  RH  077%=      5-min Rain = 0
KPA1 141538Z 18014KT M05/M09 A3029 RMK A01 T10541087  RH  078%=      5-min Rain = 0
KPA1 141539Z 18015KT M05/M09 A3029 RMK A01 T10521085  RH  078%=      5-min Rain = 0
KPA1 141540Z 19017KT M05/M09 A3029 RMK A01 T10521085  RH  077%=      5-min Rain = 0
KPA1 141541Z 18015KT M05/M09 A3029 RMK A01 T10521086  RH  077%=      5-min Rain = 0
KPA1 141542Z 19016KT M05/M09 A3029 RMK A01 T10521086  RH  077%=      5-min Rain = 0
KPA1 141543Z 19016KT M05/M09 A3029 RMK A01 T10521085  RH  077%=      5-min Rain = 0
KPA1 141544Z 19016KT M05/M09 A3029 RMK A01 T10521085  RH  078%=      5-min Rain = 0
KPA1 141545Z 19015KT M05/M09 A3029 RMK A01 T10521085  RH  078%=      5-min Rain = 0
KPA1 141546Z 19014KT M05/M09 A3029 RMK A01 T10521085  RH  078%=      5-min Rain = 0
KPA1 141547Z 19015KT M05/M08 A3029 RMK A01 T10511084  RH  078%=      5-min Rain = 0
KPA1 141548Z 19015KT M05/M08 A3029 RMK A01 T10501083  RH  077%=      5-min Rain = 0
KPA1 141549Z 18015KT M05/M08 A3029 RMK A01 T10501083  RH  078%=      5-min Rain = 0
KPA1 141550Z 18015KT M05/M08 A3029 RMK A01 T10501083  RH  077%=      5-min Rain = 0
KPA1 141551Z 18016KT M05/M08 A3029 RMK A01 T10501084  RH  077%=      5-min Rain = 0
KPA1 141552Z 18017KT M05/M08 A3028 RMK A01 T10501083  RH  077%=      5-min Rain = 0
KPA1 141553Z 19015KT M05/M08 A3029 RMK A01 T10491083  RH  077%=      5-min Rain = 0
KPA1 141554Z 18015KT M05/M08 A3028 RMK A01 T10501083  RH  077%=      5-min Rain = 0
KPA1 141555Z 18015KT M05/M08 A3028 RMK A01 T10491082  RH  078%=      5-min Rain = 0
KPA1 141556Z 19015KT M05/M08 A3028 RMK A01 T10481081  RH  078%=      5-min Rain = 0
KPA1 141557Z 18012G17KT M05/M08 A3028 RMK A01 T10481081  RH  077%=      5-min Rain = 0
KPA1 141558Z 18016KT M05/M08 A3028 RMK A01 T10461080  RH  078%=      5-min Rain = 0
KPA1 141559Z 18014KT M05/M08 A3028 RMK A01 T10461080  RH  077%=      5-min Rain = 0
KPA1 141600Z 18013KT M05/M08 A3028 RMK A01 T10471081  RH  077%=      5-min Rain = 0
KPA1 141601Z 18014G19KT M05/M08 A3028 RMK A01 T10461079  RH  078%=      5-min Rain = 0
KPA1 141602Z 18015KT M04/M08 A3028 RMK A01 T10441077  RH  078%=      5-min Rain = 0
KPA1 141603Z 18015KT M05/M08 A3028 RMK A01 T10451078  RH  078%=      5-min Rain = 0
KPA1 141604Z 19015KT M05/M08 A3028 RMK A01 T10451078  RH  077%=      5-min Rain = 0
KPA1 141605Z 18016KT M05/M08 A3028 RMK A01 T10461079  RH  078%=      5-min Rain = 0
KPA1 141606Z 18015KT M05/M08 A3028 RMK A01 T10451078  RH  078%=      5-min Rain = 0
KPA1 141607Z 18015KT M05/M08 A3028 RMK A01 T10451077  RH  078%=      5-min Rain = 0
KPA1 141608Z 18014KT M05/M08 A3028 RMK A01 T10451078  RH  078%=      5-min Rain = 0
KPA1 141609Z 18015KT M05/M08 A3028 RMK A01 T10451077  RH  078%=      5-min Rain = 0
KPA1 141610Z 19016KT M05/M08 A3028 RMK A01 T10451077  RH  078%=      5-min Rain = 0
KPA1 141611Z 18013KT M04/M08 A3028 RMK A01 T10441077  RH  078%=      5-min Rain = 0
KPA1 141612Z 19016KT M04/M08 A3028 RMK A01 T10441076  RH  078%=      5-min Rain = 0
KPA1 141613Z 18017KT M04/M08 A3028 RMK A01 T10441077  RH  078%=      5-min Rain = 0
KPA1 141614Z 18014G19KT M05/M08 A3028 RMK A01 T10451077  RH  078%=      5-min Rain = 0
KPA1 141615Z 18017KT M04/M08 A3028 RMK A01 T10441077  RH  078%=      5-min Rain = 0
KPA1 141616Z 18016KT M05/M08 A3028 RMK A01 T10451077  RH  078%=      5-min Rain = 0
KPA1 141617Z 18015KT M05/M08 A3028 RMK A01 T10451077  RH  078%=      5-min Rain = 0
KPA1 141618Z 18015KT M04/M08 A3028 RMK A01 T10441076  RH  078%=      5-min Rain = 0
KPA1 141619Z 18015KT M04/M08 A3028 RMK A01 T10441076  RH  078%=      5-min Rain = 0
KPA1 141620Z 18014KT M04/M08 A3028 RMK A01 T10431075  RH  079%=      5-min Rain = 0
KPA1 141621Z 18015KT M04/M07 A3028 RMK A01 T10421074  RH  079%=      5-min Rain = 0
KPA1 141622Z 18012KT M04/M07 A3028 RMK A01 T10421074  RH  078%=      5-min Rain = 0
KPA1 141623Z 18015KT M04/M07 A3028 RMK A01 T10411073  RH  079%=      5-min Rain = 0
KPA1 141624Z 19016KT M04/M07 A3028 RMK A01 T10421074  RH  078%=      5-min Rain = 0
KPA1 141625Z 19015KT M04/M08 A3028 RMK A01 T10431075  RH  078%=      5-min Rain = 0
KPA1 141626Z 18013KT M04/M07 A3028 RMK A01 T10421073  RH  079%=      5-min Rain = 0
KPA1 141627Z 18014KT M04/M07 A3028 RMK A01 T10411071  RH  079%=      5-min Rain = 0
KPA1 141628Z 19013KT M04/M07 A3028 RMK A01 T10401071  RH  079%=      5-min Rain = 0
KPA1 141629Z 18015KT M04/M07 A3028 RMK A01 T10401071  RH  079%=      5-min Rain = 0
KPA1 141630Z 18015KT M04/M07 A3028 RMK A01 T10391072  RH  078%=      5-min Rain = 0
KPA1 141631Z 18015KT M04/M07 A3028 RMK A01 T10401072  RH  078%=      5-min Rain = 0
KPA1 141632Z 18017KT M04/M07 A3028 RMK A01 T10401072  RH  078%=      5-min Rain = 0
KPA1 141633Z 19015KT M04/M07 A3028 RMK A01 T10401072  RH  078%=      5-min Rain = 0
KPA1 141634Z 18016KT M04/M07 A3028 RMK A01 T10401072  RH  079%=      5-min Rain = 0
KPA1 141635Z 18014KT M04/M07 A3028 RMK A01 T10401071  RH  079%=      5-min Rain = 0
KPA1 141636Z 18013G18KT M04/M07 A3027 RMK A01 T10391070  RH  079%=      5-min Rain = 0
KPA1 141637Z 18016KT M04/M07 A3027 RMK A01 T10381069  RH  079%=      5-min Rain = 0
KPA1 141638Z 18015KT M04/M07 A3027 RMK A01 T10391071  RH  078%=      5-min Rain = 0
KPA1 141639Z 18014G19KT M04/M07 A3027 RMK A01 T10391071  RH  078%=      5-min Rain = 0
KPA1 141640Z 17015KT M04/M07 A3027 RMK A01 T10391071  RH  079%=      5-min Rain = 0
KPA1 141641Z 17014KT M04/M07 A3027 RMK A01 T10401072  RH  078%=      5-min Rain = 0
KPA1 141642Z 17016KT M04/M07 A3027 RMK A01 T10401071  RH  079%=      5-min Rain = 0
KPA1 141643Z 18012KT M04/M07 A3027 RMK A01 T10391071  RH  079%=      5-min Rain = 0
KPA1 141644Z 18016KT M04/M07 A3027 RMK A01 T10381068  RH  079%=      5-min Rain = 0
KPA1 141645Z 18014KT M04/M07 A3027 RMK A01 T10371069  RH  079%=      5-min Rain = 0
KPA1 141646Z 18012G17KT M04/M07 A3027 RMK A01 T10381069  RH  079%=      5-min Rain = 0
KPA1 141647Z 17015G20KT M04/M07 A3027 RMK A01 T10361067  RH  079%=      5-min Rain = 0
KPA1 141648Z 18017KT M04/M07 A3027 RMK A01 T10361068  RH  079%=      5-min Rain = 0
KPA1 141649Z 18015KT M04/M07 A3027 RMK A01 T10381069  RH  079%=      5-min Rain = 0
KPA1 141650Z 18015KT M04/M07 A3027 RMK A01 T10381068  RH  080%=      5-min Rain = 0
KPA1 141651Z 18014KT M04/M07 A3027 RMK A01 T10371067  RH  080%=      5-min Rain = 0
KPA1 141652Z 18014G19KT M04/M07 A3027 RMK A01 T10381067  RH  080%=      5-min Rain = 0
KPA1 141653Z 18018KT M04/M07 A3027 RMK A01 T10381067  RH  080%=      5-min Rain = 0
KPA1 141654Z 18015KT M04/M07 A3027 RMK A01 T10381066  RH  081%=      5-min Rain = 0
KPA1 141655Z 18013KT M04/M07 A3027 RMK A01 T10381066  RH  081%=      5-min Rain = 0
KPA1 141656Z 18014KT M04/M06 A3027 RMK A01 T10361064  RH  081%=      5-min Rain = 0
KPA1 141657Z 18016KT M04/M06 A3027 RMK A01 T10361064  RH  081%=      5-min Rain = 0
KPA1 141658Z 18013KT M04/M07 A3027 RMK A01 T10361065  RH  080%=      5-min Rain = 0
KPA1 141659Z 17016KT M04/M07 A3027 RMK A01 T10351065  RH  080%=      5-min Rain = 0
KPA1 141700Z 18014KT M04/M07 A3027 RMK A01 T10351066  RH  079%=      5-min Rain = 0
KPA1 141701Z 18015KT M04/M07 A3027 RMK A01 T10351066  RH  079%=      5-min Rain = 0
KPA1 141702Z 19014KT M04/M07 A3027 RMK A01 T10361066  RH  079%=      5-min Rain = 0
KPA1 141703Z 18013KT M04/M07 A3027 RMK A01 T10361065  RH  080%=      5-min Rain = 0
KPA1 141704Z 17014KT M03/M06 A3027 RMK A01 T10341063  RH  080%=      5-min Rain = 0
KPA1 141705Z 18013KT M03/M06 A3027 RMK A01 T10321062  RH  080%=      5-min Rain = 0
KPA1 141706Z 18016KT M03/M06 A3027 RMK A01 T10321064  RH  079%=      5-min Rain = 0
KPA1 141707Z 18017KT M03/M07 A3027 RMK A01 T10341066  RH  079%=      5-min Rain = 0
KPA1 141708Z 19013KT M04/M07 A3027 RMK A01 T10361066  RH  079%=      5-min Rain = 0
KPA1 141709Z 18014G19KT M04/M06 A3027 RMK A01 T10351064  RH  080%=      5-min Rain = 0
KPA1 141710Z 18014KT M03/M06 A3027 RMK A01 T10341063  RH  081%=      5-min Rain = 0
KPA1 141711Z 18013KT M03/M06 A3027 RMK A01 T10341063  RH  080%=      5-min Rain = 0
KPA1 141712Z 19015KT M04/M06 A3027 RMK A01 T10351063  RH  081%=      5-min Rain = 0
KPA1 141713Z 18015KT M03/M06 A3027 RMK A01 T10341062  RH  081%=      5-min Rain = 0
KPA1 141714Z 18014KT M03/M06 A3027 RMK A01 T10341061  RH  081%=      5-min Rain = 0
KPA1 141715Z 18013KT M03/M06 A3027 RMK A01 T10341061  RH  081%=      5-min Rain = 0
KPA1 141716Z 18016KT M03/M06 A3027 RMK A01 T10331061  RH  081%=      5-min Rain = 0
KPA1 141717Z 18017KT M03/M06 A3027 RMK A01 T10331062  RH  081%=      5-min Rain = 0
KPA1 141718Z 19013KT M03/M06 A3027 RMK A01 T10341062  RH  081%=      5-min Rain = 0
KPA1 141719Z 19014KT M03/M06 A3026 RMK A01 T10341062  RH  081%=      5-min Rain = 0
KPA1 141720Z 19013G18KT M03/M06 A3026 RMK A01 T10341061  RH  081%=      5-min Rain = 0
KPA1 141721Z 18017KT M03/M06 A3026 RMK A01 T10321060  RH  081%=      5-min Rain = 0
KPA1 141722Z 18016KT M03/M06 A3026 RMK A01 T10331062  RH  080%=      5-min Rain = 0
KPA1 141723Z 18015KT M03/M06 A3026 RMK A01 T10341062  RH  081%=      5-min Rain = 0
KPA1 141724Z 19014KT M03/M06 A3026 RMK A01 T10341062  RH  081%=      5-min Rain = 0
KPA1 141725Z 19014KT M03/M06 A3026 RMK A01 T10331062  RH  081%=      5-min Rain = 0
KPA1 141726Z 17016KT M03/M06 A3026 RMK A01 T10331062  RH  080%=      5-min Rain = 0
KPA1 141727Z 18016KT M03/M06 A3026 RMK A01 T10331061  RH  081%=      5-min Rain = 0
KPA1 141728Z 18015KT M03/M06 A3026 RMK A01 T10321059  RH  081%=      5-min Rain = 0
KPA1 141729Z 18017KT M03/M06 A3026 RMK A01 T10321060  RH  081%=      5-min Rain = 0
KPA1 141730Z 19016KT M03/M06 A3026 RMK A01 T10331062  RH  081%=      5-min Rain = 0
KPA1 141731Z 19014KT M03/M06 A3026 RMK A01 T10331060  RH  082%=      5-min Rain = 0
KPA1 141732Z 19013KT M03/M06 A3026 RMK A01 T10311058  RH  082%=      5-min Rain = 0
KPA1 141733Z 19013KT M03/M06 A3026 RMK A01 T10301058  RH  081%=      5-min Rain = 0
KPA1 141734Z 18014KT M03/M06 A3026 RMK A01 T10301059  RH  080%=      5-min Rain = 0
KPA1 141735Z 18016KT M03/M06 A3026 RMK A01 T10291059  RH  080%=      5-min Rain = 0
KPA1 141736Z 18014KT M03/M06 A3026 RMK A01 T10301060  RH  080%=      5-min Rain = 0
KPA1 141737Z 18014G19KT M03/M06 A3025 RMK A01 T10301060  RH  080%=      5-min Rain = 0
KPA1 141738Z 19012KT M03/M06 A3026 RMK A01 T10281057  RH  081%=      5-min Rain = 0
KPA1 141739Z 18014KT M03/M06 A3025 RMK A01 T10261056  RH  080%=      5-min Rain = 0
KPA1 141740Z 18014KT M03/M06 A3025 RMK A01 T10271058  RH  079%=      5-min Rain = 0
KPA1 141741Z 18016KT M03/M06 A3025 RMK A01 T10281058  RH  079%=      5-min Rain = 0
KPA1 141742Z 18013KT M03/M06 A3025 RMK A01 T10281059  RH  080%=      5-min Rain = 0
KPA1 141743Z 18016KT M03/M06 A3025 RMK A01 T10281058  RH  080%=      5-min Rain = 0
KPA1 141744Z 18014KT M03/M06 A3025 RMK A01 T10281058  RH  080%=      5-min Rain = 0
KPA1 141745Z 18013KT M03/M06 A3025 RMK A01 T10271057  RH  080%=      5-min Rain = 0
KPA1 141746Z 18012KT M03/M06 A3025 RMK A01 T10271057  RH  080%=      5-min Rain = 0
KPA1 141747Z 18012KT M03/M06 A3025 RMK A01 T10261057  RH  080%=      5-min Rain = 0
KPA1 141748Z 20011KT M03/M06 A3025 RMK A01 T10251055  RH  080%=      5-min Rain = 0
KPA1 141749Z 19012KT M02/M05 A3025 RMK A01 T10221053  RH  079%=      5-min Rain = 0
KPA1 141750Z 18013KT M02/M05 A3025 RMK A01 T10221054  RH  079%=      5-min Rain = 0
KPA1 141751Z 18013KT M02/M06 A3025 RMK A01 T10221055  RH  078%=      5-min Rain = 0
KPA1 141752Z 19014KT M02/M05 A3025 RMK A01 T10221054  RH  078%=      5-min Rain = 0
KPA1 141753Z 19014KT M02/M06 A3025 RMK A01 T10221056  RH  078%=      5-min Rain = 0
KPA1 141754Z 19014KT M02/M06 A3024 RMK A01 T10231055  RH  078%=      5-min Rain = 0
KPA1 141755Z 18015KT M02/M06 A3024 RMK A01 T10231055  RH  079%=      5-min Rain = 0
KPA1 141756Z 17013KT M02/M06 A3024 RMK A01 T10231055  RH  079%=      5-min Rain = 0
KPA1 141757Z 19014KT M02/M05 A3024 RMK A01 T10221053  RH  079%=      5-min Rain = 0
KPA1 141758Z 19015KT M02/M05 A3024 RMK A01 T10201051  RH  080%=      5-min Rain = 0
KPA1 141759Z 20014KT M02/M05 A3024 RMK A01 T10201050  RH  080%=      5-min Rain = 0
KPA1 141800Z 19013KT M02/M05 A3024 RMK A01 T10191048  RH  081%=      5-min Rain = 0
KPA1 141801Z 18012KT M02/M05 A3024 RMK A01 T10191048  RH  080%=      5-min Rain = 0
KPA1 141802Z 19014KT M02/M05 A3024 RMK A01 T10171047  RH  080%=      5-min Rain = 0
KPA1 141803Z 19011KT M02/M05 A3024 RMK A01 T10171047  RH  080%=      5-min Rain = 0
KPA1 141804Z 19015KT M02/M05 A3024 RMK A01 T10161046  RH  080%=      5-min Rain = 0
KPA1 141805Z 19014KT M02/M05 A3024 RMK A01 T10161046  RH  080%=      5-min Rain = 0
KPA1 141806Z 18016KT M02/M05 A3024 RMK A01 T10171047  RH  080%=      5-min Rain = 0
KPA1 141807Z 19016KT M02/M05 A3024 RMK A01 T10181047  RH  080%=      5-min Rain = 0
KPA1 141808Z 20016G21KT M02/M05 A3024 RMK A01 T10181046  RH  081%=      5-min Rain = 0
KPA1 141809Z 19014G19KT M02/M05 A3024 RMK A01 T10191047  RH  081%=      5-min Rain = 0
KPA1 141810Z 20015KT M02/M05 A3023 RMK A01 T10181045  RH  082%=      5-min Rain = 0
KPA1 141811Z 19014KT M02/M05 A3023 RMK A01 T10181046  RH  081%=      5-min Rain = 0
KPA1 141812Z 19017KT M02/M05 A3023 RMK A01 T10181045  RH  082%=      5-min Rain = 0
KPA1 141813Z 19015G20KT M02/M05 A3023 RMK A01 T10181045  RH  082%=      5-min Rain = 0
KPA1 141814Z 19017KT M02/M05 A3023 RMK A01 T10181045  RH  082%=      5-min Rain = 0
KPA1 141815Z 19017KT M02/M05 A3023 RMK A01 T10181045  RH  082%=      5-min Rain = 0
KPA1 141816Z 19017KT M02/M05 A3023 RMK A01 T10171045  RH  082%=      5-min Rain = 0
KPA1 141817Z 19016KT M02/M05 A3023 RMK A01 T10171045  RH  082%=      5-min Rain = 0
KPA1 141818Z 19016G21KT M02/M04 A3023 RMK A01 T10171044  RH  082%=      5-min Rain = 0
KPA1 141819Z 19015KT M02/M04 A3023 RMK A01 T10181044  RH  082%=      5-min Rain = 0
KPA1 141820Z 19016KT M02/M04 A3022 RMK A01 T10171044  RH  082%=      5-min Rain = 0
KPA1 141821Z 19014G19KT M02/M04 A3022 RMK A01 T10171044  RH  082%=      5-min Rain = 0
KPA1 141822Z 19015G20KT M02/M04 A3022 RMK A01 T10161043  RH  082%=      5-min Rain = 0
KPA1 141823Z 18017KT M02/M04 A3023 RMK A01 T10151042  RH  082%=      5-min Rain = 0
KPA1 141824Z 20013KT M02/M04 A3022 RMK A01 T10151044  RH  081%=      5-min Rain = 0
KPA1 141825Z 20017KT M01/M04 A3022 RMK A01 T10141042  RH  082%=      5-min Rain = 0
KPA1 141826Z 20018KT M02/M04 A3022 RMK A01 T10151043  RH  081%=      5-min Rain = 0
KPA1 141827Z 19018KT M02/M05 A3022 RMK A01 T10161045  RH  081%=      5-min Rain = 0
KPA1 141828Z 19015KT M02/M04 A3022 RMK A01 T10161043  RH  081%=      5-min Rain = 0
KPA1 141829Z 19017KT M01/M04 A3022 RMK A01 T10141041  RH  082%=      5-min Rain = 0
KPA1 141830Z 19017KT M01/M04 A3022 RMK A01 T10141044  RH  080%=      5-min Rain = 0
KPA1 141831Z 19018KT M02/M04 A3022 RMK A01 T10151044  RH  081%=      5-min Rain = 0
KPA1 141832Z 19015KT M02/M04 A3022 RMK A01 T10151043  RH  081%=      5-min Rain = 0
KPA1 141833Z 19014KT M01/M04 A3022 RMK A01 T10121040  RH  082%=      5-min Rain = 0
KPA1 141834Z 19014KT M01/M04 A3022 RMK A01 T10101040  RH  081%=      5-min Rain = 0
KPA1 141835Z 19016KT M01/M04 A3022 RMK A01 T10111041  RH  080%=      5-min Rain = 0
KPA1 141836Z 20016KT M01/M04 A3022 RMK A01 T10101041  RH  080%=      5-min Rain = 0
KPA1 141837Z 19017G23KT M01/M04 A3021 RMK A01 T10111041  RH  080%=      5-min Rain = 0
KPA1 141838Z 19015G20KT M01/M04 A3021 RMK A01 T10101040  RH  080%=      5-min Rain = 0
KPA1 141839Z 19019KT M01/M04 A3021 RMK A01 T10091040  RH  080%=      5-min Rain = 0
KPA1 141840Z 19019KT M01/M04 A3021 RMK A01 T10111043  RH  079%=      5-min Rain = 0
KPA1 141841Z 19017G22KT M01/M04 A3021 RMK A01 T10121042  RH  080%=      5-min Rain = 0
KPA1 141842Z 19019KT M01/M04 A3021 RMK A01 T10111041  RH  080%=      5-min Rain = 0
KPA1 141843Z 19018KT M01/M04 A3021 RMK A01 T10111040  RH  080%=      5-min Rain = 0
KPA1 141844Z 19018KT M01/M04 A3021 RMK A01 T10101040  RH  080%=      5-min Rain = 0
KPA1 141845Z 20017KT M01/M04 A3021 RMK A01 T10111041  RH  080%=      5-min Rain = 0
KPA1 141846Z 18018KT M01/M04 A3021 RMK A01 T10101040  RH  080%=      5-min Rain = 0
KPA1 141847Z 19017KT M01/M04 A3021 RMK A01 T10111041  RH  080%=      5-min Rain = 0
KPA1 141848Z 19017KT M01/M04 A3021 RMK A01 T10111041  RH  080%=      5-min Rain = 0
KPA1 141849Z 19019KT M01/M04 A3021 RMK A01 T10111041  RH  080%=      5-min Rain = 0
KPA1 141850Z 19017KT M01/M04 A3021 RMK A01 T10111041  RH  080%=      5-min Rain = 0
KPA1 141851Z 19018KT M01/M04 A3021 RMK A01 T10101040  RH  080%=      5-min Rain = 0
KPA1 141852Z 19017KT M01/M04 A3021 RMK A01 T10111041  RH  080%=      5-min Rain = 0
KPA1 141853Z 20016KT M01/M04 A3021 RMK A01 T10111040  RH  081%=      5-min Rain = 0
KPA1 141854Z 20017KT M01/M04 A3021 RMK A01 T10091038  RH  081%=      5-min Rain = 0
KPA1 141855Z 20015KT M01/M04 A3021 RMK A01 T10081038  RH  080%=      5-min Rain = 0
KPA1 141856Z 20014KT M01/M04 A302 RMK A01 T10061037  RH  080%=      5-min Rain = 0
KPA1 141857Z 19018KT M00/M04 A302 RMK A01 T10041035  RH  080%=      5-min Rain = 0
KPA1 141858Z 18019KT M00/M04 A302 RMK A01 T10041037  RH  078%=      5-min Rain = 0
KPA1 141859Z 18017KT M01/M04 A302 RMK A01 T10061039  RH  078%=      5-min Rain = 0
KPA1 141900Z 19017KT M01/M04 A302 RMK A01 T10061038  RH  079%=      5-min Rain = 0
KPA1 141901Z 20012KT M01/M04 A302 RMK A01 T10051037  RH  079%=      5-min Rain = 0
KPA1 141902Z 19014KT M00/M03 A302 RMK A01 T10021033  RH  079%=      5-min Rain = 0
KPA1 141903Z 19016KT 00/03 A302 RMK A01 T00000-33  RH  078%=      5-min Rain = 0
KPA1 141904Z 18019KT M00/M04 A302 RMK A01 T10011036  RH  077%=      5-min Rain = 0
KPA1 141905Z 19018KT M00/M04 A302 RMK A01 T10031038  RH  077%=      5-min Rain = 0
KPA1 141906Z 19016KT M00/M04 A302 RMK A01 T10031038  RH  078%=      5-min Rain = 0
KPA1 141907Z 19015KT M00/M04 A302 RMK A01 T10031036  RH  078%=      5-min Rain = 0
KPA1 141908Z 19015KT M00/M03 A302 RMK A01 T10021034  RH  079%=      5-min Rain = 0
KPA1 141909Z 19015KT M00/M03 A302 RMK A01 T10011034  RH  078%=      5-min Rain = 0
KPA1 141910Z 19018KT M00/M04 A3019 RMK A01 T10011035  RH  078%=      5-min Rain = 0
KPA1 141911Z 19018KT M00/M04 A3019 RMK A01 T10021036  RH  078%=      5-min Rain = 0
KPA1 141912Z 19018KT M00/M04 A3019 RMK A01 T10031036  RH  078%=      5-min Rain = 0
KPA1 141913Z 18017KT M00/M04 A3019 RMK A01 T10021035  RH  079%=      5-min Rain = 0
KPA1 141914Z 18017G22KT 00/03 A3019 RMK A01 T00-00-33  RH  079%=      5-min Rain = 0
KPA1 141915Z 18016KT 00/M03 A3019 RMK A01 T00011034  RH  078%=      5-min Rain = 0
KPA1 141916Z 18016KT 00/M03 A3019 RMK A01 T00011034  RH  077%=      5-min Rain = 0
KPA1 141917Z 19014KT 00/M03 A3019 RMK A01 T00021033  RH  077%=      5-min Rain = 0
KPA1 141918Z 19016KT 00/M03 A3019 RMK A01 T00031032  RH  077%=      5-min Rain = 0
KPA1 141919Z 19015KT 00/M03 A3018 RMK A01 T00031033  RH  077%=      5-min Rain = 0
KPA1 141920Z 19015G20KT 00/M03 A3018 RMK A01 T00031033  RH  077%=      5-min Rain = 0
KPA1 141921Z 19016KT 01/M03 A3018 RMK A01 T00061030  RH  077%=      5-min Rain = 0
KPA1 141922Z 19014G19KT 01/M03 A3018 RMK A01 T00061031  RH  076%=      5-min Rain = 0
KPA1 141923Z 19015KT 01/M03 A3018 RMK A01 T00061031  RH  076%=      5-min Rain = 0
KPA1 141924Z 19014KT 01/M03 A3018 RMK A01 T00061031  RH  076%=      5-min Rain = 0
KPA1 141925Z 19013G18KT 01/M03 A3018 RMK A01 T00071029  RH  076%=      5-min Rain = 0
KPA1 141926Z 19013G18KT 01/M03 A3018 RMK A01 T00101027  RH  076%=      5-min Rain = 0
KPA1 141927Z 19018KT 01/M03 A3018 RMK A01 T00121027  RH  076%=      5-min Rain = 0
KPA1 141928Z 19015KT 01/M03 A3018 RMK A01 T00101030  RH  074%=      5-min Rain = 0
KPA1 141929Z 19012KT 01/M03 A3018 RMK A01 T00121026  RH  076%=      5-min Rain = 0
KPA1 141930Z 19016KT 02/M02 A3018 RMK A01 T00171023  RH  075%=      5-min Rain = 0
KPA1 141931Z 19016G21KT 02/M03 A3018 RMK A01 T00171025  RH  074%=      5-min Rain = 0
KPA1 141932Z 19019KT 02/M03 A3017 RMK A01 T00151028  RH  073%=      5-min Rain = 0
KPA1 141933Z 20019KT 01/M03 A3017 RMK A01 T00121030  RH  073%=      5-min Rain = 0
KPA1 141934Z 20015KT 01/M03 A3017 RMK A01 T00091031  RH  075%=      5-min Rain = 0
KPA1 141935Z 19016KT 01/M03 A3017 RMK A01 T00101027  RH  076%=      5-min Rain = 0
KPA1 141936Z 18015KT 01/M03 A3017 RMK A01 T00111027  RH  076%=      5-min Rain = 0
KPA1 141937Z 19015G20KT 01/M03 A3017 RMK A01 T00101027  RH  076%=      5-min Rain = 0
KPA1 141938Z 18016KT 01/M03 A3017 RMK A01 T00111026  RH  076%=      5-min Rain = 0
KPA1 141939Z 19016KT 01/M03 A3017 RMK A01 T00111026  RH  076%=      5-min Rain = 0
KPA1 141940Z 20018KT 01/M03 A3017 RMK A01 T00111026  RH  076%=      5-min Rain = 0
KPA1 141941Z 20020KT 01/M03 A3017 RMK A01 T00121025  RH  077%=      5-min Rain = 0
KPA1 141942Z 20017KT 01/M03 A3017 RMK A01 T00101026  RH  077%=      5-min Rain = 0
KPA1 141943Z 19020KT 01/M02 A3017 RMK A01 T00101024  RH  078%=      5-min Rain = 0
KPA1 141944Z 19021KT 01/M03 A3017 RMK A01 T00091026  RH  077%=      5-min Rain = 0
KPA1 141945Z 20020KT 01/M03 A3017 RMK A01 T00081026  RH  078%=      5-min Rain = 0
KPA1 141946Z 19019KT 01/M03 A3017 RMK A01 T00071026  RH  079%=      5-min Rain = 0
KPA1 141947Z 19019KT 01/M02 A3017 RMK A01 T00081024  RH  079%=      5-min Rain = 0
KPA1 141948Z 20020KT 01/M02 A3017 RMK A01 T00081024  RH  079%=      5-min Rain = 0
KPA1 141949Z 20019G24KT 01/M03 A3017 RMK A01 T00081025  RH  079%=      5-min Rain = 0
KPA1 141950Z 20020KT 01/M02 A3017 RMK A01 T00081024  RH  079%=      5-min Rain = 0
KPA1 141951Z 20017KT 01/M02 A3017 RMK A01 T00091023  RH  079%=      5-min Rain = 0
KPA1 141952Z 20021KT 01/M02 A3017 RMK A01 T00091023  RH  079%=      5-min Rain = 0
KPA1 141953Z 20018KT 01/M02 A3017 RMK A01 T00091024  RH  079%=      5-min Rain = 0
KPA1 141954Z 19016KT 01/M02 A3016 RMK A01 T00081024  RH  079%=      5-min Rain = 0
KPA1 141955Z 19017KT 01/M02 A3016 RMK A01 T00091021  RH  080%=      5-min Rain = 0
KPA1 141956Z 20018KT 01/M02 A3016 RMK A01 T00101022  RH  079%=      5-min Rain = 0
KPA1 141957Z 20019KT 01/M02 A3016 RMK A01 T00091022  RH  080%=      5-min Rain = 0
KPA1 141958Z 19020KT 01/M02 A3016 RMK A01 T00091023  RH  079%=      5-min Rain = 0
KPA1 141959Z 19020KT 01/M02 A3016 RMK A01 T00091023  RH  079%=      5-min Rain = 0
KPA1 142000Z 19019KT 01/M02 A3016 RMK A01 T00091023  RH  079%=      5-min Rain = 0
KPA1 142001Z 19022KT 01/M02 A3016 RMK A01 T00081023  RH  079%=      5-min Rain = 0
KPA1 142002Z 19016G21KT 01/M02 A3016 RMK A01 T00071024  RH  080%=      5-min Rain = 0
KPA1 142003Z 20021KT 01/M02 A3016 RMK A01 T00101020  RH  081%=      5-min Rain = 0
KPA1 142004Z 20021KT 01/M02 A3016 RMK A01 T00111021  RH  079%=      5-min Rain = 0
KPA1 142005Z 20021KT 01/M02 A3016 RMK A01 T00101023  RH  079%=      5-min Rain = 0
KPA1 142006Z 20018KT 01/M02 A3015 RMK A01 T00091023  RH  079%=      5-min Rain = 0
KPA1 142007Z 20019KT 01/M02 A3015 RMK A01 T00091022  RH  080%=      5-min Rain = 0
KPA1 142008Z 19019KT 01/M02 A3015 RMK A01 T00111020  RH  080%=      5-min Rain = 0
KPA1 142009Z 20022KT 01/M02 A3015 RMK A01 T00111021  RH  079%=      5-min Rain = 0
KPA1 142010Z 19016KT 01/M02 A3015 RMK A01 T00101022  RH  079%=      5-min Rain = 0
KPA1 142011Z 19019G24KT 01/M02 A3015 RMK A01 T00101021  RH  080%=      5-min Rain = 0
KPA1 142012Z 19021G26KT 01/M02 A3015 RMK A01 T00101021  RH  080%=      5-min Rain = 0
KPA1 142013Z 19022KT 01/M02 A3015 RMK A01 T00091022  RH  079%=      5-min Rain = 0
KPA1 142014Z 19021KT 01/M02 A3015 RMK A01 T00091022  RH  080%=      5-min Rain = 0
KPA1 142015Z 20020KT 01/M02 A3015 RMK A01 T00091022  RH  080%=      5-min Rain = 0
KPA1 142016Z 19020KT 01/M02 A3015 RMK A01 T00091022  RH  080%=      5-min Rain = 0
KPA1 142017Z 19020KT 01/M02 A3015 RMK A01 T00091020  RH  080%=      5-min Rain = 0
KPA1 142018Z 20022KT 01/M02 A3015 RMK A01 T00101020  RH  080%=      5-min Rain = 0
KPA1 142019Z 20022KT 01/M02 A3015 RMK A01 T00091022  RH  080%=      5-min Rain = 0
KPA1 142020Z 19021KT 01/M02 A3015 RMK A01 T00081022  RH  080%=      5-min Rain = 0
KPA1 142021Z 19021KT 01/M02 A3015 RMK A01 T00081022  RH  081%=      5-min Rain = 0
KPA1 142022Z 19021KT 01/M02 A3014 RMK A01 T00081021  RH  081%=      5-min Rain = 0
KPA1 142023Z 20017G22KT 01/M02 A3014 RMK A01 T00081021  RH  081%=      5-min Rain = 0
KPA1 142024Z 20018KT 01/M02 A3014 RMK A01 T00081021  RH  081%=      5-min Rain = 0
KPA1 142025Z 19020KT 01/M02 A3014 RMK A01 T00091020  RH  081%=      5-min Rain = 0
KPA1 142026Z 19016KT 01/M02 A3014 RMK A01 T00101019  RH  081%=      5-min Rain = 0
KPA1 142027Z 20019G25KT 01/M02 A3014 RMK A01 T00121017  RH  081%=      5-min Rain = 0
KPA1 142028Z 19020KT 01/M02 A3014 RMK A01 T00121019  RH  080%=      5-min Rain = 0
KPA1 142029Z 19017KT 01/M02 A3014 RMK A01 T00111020  RH  080%=      5-min Rain = 0
KPA1 142030Z 18019G24KT 01/M02 A3014 RMK A01 T00121019  RH  080%=      5-min Rain = 0
KPA1 142031Z 18019KT 01/M02 A3014 RMK A01 T00121020  RH  080%=      5-min Rain = 0
KPA1 142032Z 19020KT 01/M02 A3014 RMK A01 T00111020  RH  080%=      5-min Rain = 0
KPA1 142033Z 19018KT 01/M02 A3014 RMK A01 T00101020  RH  080%=      5-min Rain = 0
KPA1 142034Z 19018KT 01/M02 A3014 RMK A01 T00101019  RH  081%=      5-min Rain = 0
KPA1 142035Z 19016KT 01/M02 A3014 RMK A01 T00111018  RH  081%=      5-min Rain = 0
KPA1 142036Z 19019KT 01/M02 A3014 RMK A01 T00121019  RH  080%=      5-min Rain = 0
KPA1 142037Z 19021KT 01/M02 A3014 RMK A01 T00121019  RH  080%=      5-min Rain = 0
KPA1 142038Z 19019KT 01/M02 A3014 RMK A01 T00111019  RH  080%=      5-min Rain = 0
KPA1 142039Z 19019KT 01/M02 A3014 RMK A01 T00121018  RH  081%=      5-min Rain = 0
KPA1 142040Z 19020KT 01/M02 A3014 RMK A01 T00121018  RH  080%=      5-min Rain = 0
KPA1 142041Z 19019KT 01/M02 A3013 RMK A01 T00131018  RH  080%=      5-min Rain = 0
KPA1 142042Z 18021KT 01/M02 A3013 RMK A01 T00121019  RH  080%=      5-min Rain = 0
KPA1 142043Z 19023KT 01/M02 A3013 RMK A01 T00121018  RH  080%=      5-min Rain = 0
KPA1 142044Z 19019KT 01/M02 A3013 RMK A01 T00121020  RH  080%=      5-min Rain = 0
KPA1 142045Z 19020G25KT 01/M02 A3013 RMK A01 T00111020  RH  080%=      5-min Rain = 0
KPA1 142046Z 19018G23KT 01/M02 A3013 RMK A01 T00101020  RH  081%=      5-min Rain = 0
KPA1 142047Z 19019KT 01/M02 A3013 RMK A01 T00111019  RH  081%=      5-min Rain = 0
KPA1 142048Z 19017KT 01/M02 A3013 RMK A01 T00101019  RH  081%=      5-min Rain = 0
KPA1 142049Z 20020KT 01/M02 A3013 RMK A01 T00101018  RH  082%=      5-min Rain = 0
KPA1 142050Z 20018G24KT 01/M02 A3013 RMK A01 T00091020  RH  081%=      5-min Rain = 0
KPA1 142051Z 19020KT 01/M02 A3013 RMK A01 T00071020  RH  082%=      5-min Rain = 0
KPA1 142052Z 19019KT 01/M02 A3013 RMK A01 T00061021  RH  082%=      5-min Rain = 0
KPA1 142053Z 19023KT 01/M02 A3013 RMK A01 T00061020  RH  083%=      5-min Rain = 0
KPA1 142054Z 19021KT 01/M02 A3013 RMK A01 T00061020  RH  083%=      5-min Rain = 0
KPA1 142055Z 19019G25KT 01/M02 A3013 RMK A01 T00071018  RH  083%=      5-min Rain = 0
KPA1 142056Z 19019KT 01/M02 A3013 RMK A01 T00091018  RH  083%=      5-min Rain = 0
KPA1 142057Z 18023KT 01/M02 A3013 RMK A01 T00101018  RH  082%=      5-min Rain = 0
KPA1 142058Z 19022KT 01/M02 A3013 RMK A01 T00101019  RH  081%=      5-min Rain = 0
KPA1 142059Z 19021KT 01/M02 A3013 RMK A01 T00091019  RH  081%=      5-min Rain = 0
KPA1 142100Z 19022KT 01/M02 A3013 RMK A01 T00091019  RH  082%=      5-min Rain = 0
KPA1 142101Z 19022KT 01/M02 A3013 RMK A01 T00091019  RH  082%=      5-min Rain = 0
KPA1 142102Z 18022KT 01/M02 A3013 RMK A01 T00091018  RH  082%=      5-min Rain = 0
KPA1 142103Z 18018G23KT 01/M02 A3013 RMK A01 T00101017  RH  082%=      5-min Rain = 0
KPA1 142104Z 18021KT 01/M02 A3012 RMK A01 T00121016  RH  082%=      5-min Rain = 0
KPA1 142105Z 18021G27KT 01/M02 A3012 RMK A01 T00131017  RH  081%=      5-min Rain = 0
KPA1 142106Z 18022KT 01/M02 A3012 RMK A01 T00121017  RH  081%=      5-min Rain = 0
KPA1 142107Z 19023KT 01/M02 A3012 RMK A01 T00121018  RH  081%=      5-min Rain = 0
KPA1 142108Z 18020KT 01/M02 A3012 RMK A01 T00111019  RH  081%=      5-min Rain = 0
KPA1 142109Z 19017KT 01/M02 A3012 RMK A01 T00111017  RH  082%=      5-min Rain = 0
KPA1 142110Z 19019KT 01/M02 A3012 RMK A01 T00131015  RH  082%=      5-min Rain = 0
KPA1 142111Z 19018KT 01/M02 A3012 RMK A01 T00131017  RH  080%=      5-min Rain = 0
KPA1 142112Z 18017KT 01/M02 A3012 RMK A01 T00131017  RH  081%=      5-min Rain = 0
KPA1 142113Z 18019KT 01/M02 A3012 RMK A01 T00131016  RH  081%=      5-min Rain = 0
KPA1 142114Z 18020G25KT 01/M02 A3012 RMK A01 T00131017  RH  081%=      5-min Rain = 0
KPA1 142115Z 18021KT 01/M02 A3012 RMK A01 T00131017  RH  081%=      5-min Rain = 0
KPA1 142116Z 19020KT 01/M02 A3012 RMK A01 T00111018  RH  081%=      5-min Rain = 0
KPA1 142117Z 19019KT 01/M02 A3012 RMK A01 T00111016  RH  082%=      5-min Rain = 0
KPA1 142118Z 19022KT 01/M02 A3012 RMK A01 T00111017  RH  082%=      5-min Rain = 0
KPA1 142119Z 19020KT 01/M02 A3012 RMK A01 T00081019  RH  082%=      5-min Rain = 0
KPA1 142120Z 20020G25KT 01/M02 A3012 RMK A01 T00071019  RH  083%=      5-min Rain = 0
KPA1 142121Z 19019KT 01/M02 A3012 RMK A01 T00061018  RH  084%=      5-min Rain = 0
KPA1 142122Z 18021KT 01/M02 A3012 RMK A01 T00061018  RH  084%=      5-min Rain = 0
KPA1 142123Z 19020G25KT 01/M02 A3012 RMK A01 T00051019  RH  084%=      5-min Rain = 0
KPA1 142124Z 19016G22KT 00/M02 A3012 RMK A01 T00041018  RH  085%=      5-min Rain = 0
KPA1 142125Z 18019KT 01/M02 A3012 RMK A01 T00051017  RH  085%=      5-min Rain = 0
KPA1 142126Z 18020KT 01/M02 A3011 RMK A01 T00051017  RH  085%=      5-min Rain = 0
KPA1 142127Z 18020KT 01/M02 A3011 RMK A01 T00051017  RH  085%=      5-min Rain = 0
KPA1 142128Z 18018KT 01/M02 A3011 RMK A01 T00061016  RH  085%=      5-min Rain = 0
KPA1 142129Z 19019KT 01/M01 A3011 RMK A01 T00091014  RH  085%=      5-min Rain = 0
KPA1 142130Z 19020G25KT 01/M01 A3011 RMK A01 T00091014  RH  084%=      5-min Rain = 0
KPA1 142131Z 19022G30KT 01/M02 A3011 RMK A01 T00101015  RH  084%=      5-min Rain = 0
KPA1 142132Z 19019KT 01/M02 A3011 RMK A01 T00091017  RH  083%=      5-min Rain = 0
KPA1 142133Z 18021KT 01/M02 A3011 RMK A01 T00071017  RH  084%=      5-min Rain = 0
KPA1 142134Z 18018G25KT 01/M02 A3011 RMK A01 T00071017  RH  084%=      5-min Rain = 0
KPA1 142135Z 18022KT 01/M02 A3011 RMK A01 T00071017  RH  084%=      5-min Rain = 0
KPA1 142136Z 18018G23KT 01/M02 A3011 RMK A01 T00071017  RH  084%=      5-min Rain = 0
KPA1 142137Z 19019G24KT 01/M02 A3011 RMK A01 T00071016  RH  085%=      5-min Rain = 0
KPA1 142138Z 19020KT 01/M02 A3011 RMK A01 T00081015  RH  085%=      5-min Rain = 0
KPA1 142139Z 19018G24KT 01/M02 A3011 RMK A01 T00081016  RH  084%=      5-min Rain = 0
KPA1 142140Z 18018KT 01/M01 A3011 RMK A01 T00101013  RH  084%=      5-min Rain = 0
KPA1 142141Z 18019KT 01/M01 A3011 RMK A01 T00121013  RH  084%=      5-min Rain = 0
KPA1 142142Z 18020KT 01/M01 A3011 RMK A01 T00121014  RH  083%=      5-min Rain = 0
KPA1 142143Z 18020KT 01/M01 A3011 RMK A01 T00131014  RH  082%=      5-min Rain = 0
KPA1 142144Z 18018KT 01/M02 A3011 RMK A01 T00121015  RH  082%=      5-min Rain = 0
KPA1 142145Z 18019KT 01/M01 A3011 RMK A01 T00131014  RH  082%=      5-min Rain = 0
KPA1 142146Z 18020KT 01/M02 A3011 RMK A01 T00121015  RH  082%=      5-min Rain = 0
KPA1 142147Z 18021KT 01/M02 A3011 RMK A01 T00121015  RH  082%=      5-min Rain = 0
KPA1 142148Z 19017KT 01/M02 A3011 RMK A01 T00121015  RH  083%=      5-min Rain = 0
KPA1 142149Z 19019G26KT 01/M01 A3011 RMK A01 T00121014  RH  083%=      5-min Rain = 0
KPA1 142150Z 19020KT 01/M01 A3011 RMK A01 T00121014  RH  083%=      5-min Rain = 0
KPA1 142151Z 19021KT 01/M01 A3011 RMK A01 T00121014  RH  083%=      5-min Rain = 0
KPA1 142152Z 19022KT 01/M02 A3011 RMK A01 T00121015  RH  082%=      5-min Rain = 0
KPA1 142153Z 19021KT 01/M02 A3011 RMK A01 T00121015  RH  083%=      5-min Rain = 0
KPA1 142154Z 19017KT 01/M01 A3011 RMK A01 T00111014  RH  083%=      5-min Rain = 0
KPA1 142155Z 19018KT 01/M01 A3011 RMK A01 T00111014  RH  083%=      5-min Rain = 0
KPA1 142156Z 18016KT 01/M01 A3011 RMK A01 T00121014  RH  083%=      5-min Rain = 0
KPA1 142157Z 18016KT 01/M01 A3011 RMK A01 T00121013  RH  083%=      5-min Rain = 0
KPA1 142158Z 18017KT 01/M01 A3011 RMK A01 T00121014  RH  083%=      5-min Rain = 0
KPA1 142159Z 18017KT 01/M02 A301 RMK A01 T00121015  RH  083%=      5-min Rain = 0
KPA1 142200Z 18019KT 01/M01 A301 RMK A01 T00121014  RH  083%=      5-min Rain = 0
KPA1 142201Z 18020KT 01/M02 A301 RMK A01 T00111015  RH  083%=      5-min Rain = 0
KPA1 142202Z 18018G23KT 01/M02 A301 RMK A01 T00101015  RH  083%=      5-min Rain = 0
KPA1 142203Z 19018G23KT 01/M01 A301 RMK A01 T00111013  RH  084%=      5-min Rain = 0
KPA1 142204Z 19024KT 01/M01 A301 RMK A01 T00121013  RH  084%=      5-min Rain = 0
KPA1 142205Z 19021G26KT 01/M02 A301 RMK A01 T00111015  RH  083%=      5-min Rain = 0
KPA1 142206Z 19019KT 01/M01 A301 RMK A01 T00101014  RH  084%=      5-min Rain = 0
KPA1 142207Z 19017G23KT 01/M01 A301 RMK A01 T00111013  RH  084%=      5-min Rain = 0
KPA1 142208Z 19020KT 01/M01 A301 RMK A01 T00111013  RH  084%=      5-min Rain = 0
KPA1 142209Z 18018G23KT 01/M01 A301 RMK A01 T00121013  RH  084%=      5-min Rain = 0
KPA1 142210Z 18016KT 01/M01 A301 RMK A01 T00121013  RH  084%=      5-min Rain = 0
KPA1 142211Z 18018KT 01/M01 A301 RMK A01 T00121013  RH  084%=      5-min Rain = 0
KPA1 142212Z 18021KT 01/M01 A301 RMK A01 T00121013  RH  084%=      5-min Rain = 0
KPA1 142213Z 19020G25KT 01/M01 A301 RMK A01 T00111013  RH  084%=      5-min Rain = 0
KPA1 142214Z 19018KT 01/M01 A301 RMK A01 T00101014  RH  084%=      5-min Rain = 0
KPA1 142215Z 18016KT 01/M01 A301 RMK A01 T00101014  RH  084%=      5-min Rain = 0
KPA1 142216Z 18015G25KT 01/M01 A301 RMK A01 T00101013  RH  085%=      5-min Rain = 0
KPA1 142217Z 19019KT 01/M01 A301 RMK A01 T00101013  RH  084%=      5-min Rain = 0
KPA1 142218Z 18020KT 01/M01 A301 RMK A01 T00101014  RH  084%=      5-min Rain = 0
KPA1 142219Z 18018KT 01/M01 A301 RMK A01 T00091014  RH  085%=      5-min Rain = 0
KPA1 142220Z 19020KT 01/M01 A301 RMK A01 T00091014  RH  085%=      5-min Rain = 0
KPA1 142221Z 19019KT 01/M01 A301 RMK A01 T00081014  RH  085%=      5-min Rain = 0
KPA1 142222Z 19017KT 01/M01 A301 RMK A01 T00081014  RH  086%=      5-min Rain = 0
KPA1 142223Z 19017G22KT 01/M01 A301 RMK A01 T00081012  RH  086%=      5-min Rain = 0
KPA1 142224Z 19016KT 01/M01 A301 RMK A01 T00091012  RH  086%=      5-min Rain = 0
KPA1 142225Z 19020KT 01/M01 A3009 RMK A01 T00101011  RH  086%=      5-min Rain = 0
KPA1 142226Z 19018KT 01/M01 A301 RMK A01 T00101013  RH  085%=      5-min Rain = 0
KPA1 142227Z 19020KT 01/M01 A301 RMK A01 T00091012  RH  085%=      5-min Rain = 0
KPA1 142228Z 19017KT 01/M01 A3009 RMK A01 T00091013  RH  085%=      5-min Rain = 0
KPA1 142229Z 18016G21KT 01/M01 A3009 RMK A01 T00091013  RH  086%=      5-min Rain = 0
KPA1 142230Z 18016G21KT 01/M01 A3009 RMK A01 T00101012  RH  086%=      5-min Rain = 0
KPA1 142231Z 18019KT 01/M01 A3009 RMK A01 T00101012  RH  086%=      5-min Rain = 0
KPA1 142232Z 18018G23KT 01/M01 A3009 RMK A01 T00101012  RH  085%=      5-min Rain = 0
KPA1 142233Z 18019KT 01/M01 A3009 RMK A01 T00101012  RH  085%=      5-min Rain = 0
KPA1 142234Z 19016KT 01/M01 A3009 RMK A01 T00101012  RH  085%=      5-min Rain = 0
KPA1 142235Z 19019G26KT 01/M01 A3009 RMK A01 T00101012  RH  086%=      5-min Rain = 0
KPA1 142236Z 19021KT 01/M01 A3009 RMK A01 T00101012  RH  085%=      5-min Rain = 0
KPA1 142237Z 19019KT 01/M01 A3009 RMK A01 T00101012  RH  085%=      5-min Rain = 0
KPA1 142238Z 18019G24KT 01/M01 A3009 RMK A01 T00111011  RH  085%=      5-min Rain = 0
KPA1 142239Z 18022KT 01/M01 A3009 RMK A01 T00111011  RH  085%=      5-min Rain = 0
KPA1 142240Z 19017KT 01/M01 A3009 RMK A01 T00111011  RH  085%=      5-min Rain = 0
KPA1 142241Z 19016KT 01/M01 A3009 RMK A01 T00121011  RH  085%=      5-min Rain = 0
KPA1 142242Z 18018KT 01/M01 A3009 RMK A01 T00121010  RH  085%=      5-min Rain = 0
KPA1 142243Z 18018KT 01/M01 A3009 RMK A01 T00121011  RH  084%=      5-min Rain = 0
KPA1 142244Z 18017G22KT 01/M01 A3009 RMK A01 T00121012  RH  084%=      5-min Rain = 0
KPA1 142245Z 19018G24KT 01/M01 A3009 RMK A01 T00121011  RH  085%=      5-min Rain = 0
KPA1 142246Z 18022KT 01/M01 A3009 RMK A01 T00121012  RH  085%=      5-min Rain = 0
KPA1 142247Z 19020KT 01/M01 A3009 RMK A01 T00111012  RH  085%=      5-min Rain = 0
KPA1 142248Z 19020KT 01/M01 A3009 RMK A01 T00111012  RH  085%=      5-min Rain = 0
KPA1 142249Z 19021KT 01/M01 A3009 RMK A01 T00111012  RH  085%=      5-min Rain = 0
KPA1 142250Z 19021KT 01/M01 A3009 RMK A01 T00111011  RH  085%=      5-min Rain = 0
KPA1 142251Z 19020KT 01/M01 A3009 RMK A01 T00111010  RH  086%=      5-min Rain = 0
KPA1 142252Z 19020KT 01/M01 A3009 RMK A01 T00111010  RH  086%=      5-min Rain = 0
KPA1 142253Z 19021G26KT 01/M01 A3009 RMK A01 T00111011  RH  086%=      5-min Rain = 0
KPA1 142254Z 18020G25KT 01/M01 A3009 RMK A01 T00111011  RH  086%=      5-min Rain = 0
KPA1 142255Z 18021KT 01/M01 A3009 RMK A01 T00101011  RH  086%=      5-min Rain = 0
KPA1 142256Z 18024KT 01/M01 A3008 RMK A01 T00101011  RH  086%=      5-min Rain = 0
KPA1 142257Z 18024KT 01/M01 A3009 RMK A01 T00091012  RH  086%=      5-min Rain = 0
KPA1 142258Z 17022G27KT 01/M01 A3009 RMK A01 T00091011  RH  086%=      5-min Rain = 0
KPA1 142259Z 18019KT 01/M01 A3008 RMK A01 T00091011  RH  086%=      5-min Rain = 0
KPA1 142300Z 19022KT 01/M01 A3008 RMK A01 T00091011  RH  087%=      5-min Rain = 0
KPA1 142301Z 18021G26KT 01/M01 A3009 RMK A01 T00091010  RH  087%=      5-min Rain = 0
KPA1 142302Z 18023G28KT 01/M01 A3009 RMK A01 T00091010  RH  087%=      5-min Rain = 0
KPA1 142303Z 19023KT 01/M01 A3008 RMK A01 T00101010  RH  087%=      5-min Rain = 0
KPA1 142304Z 19021KT 01/M01 A3009 RMK A01 T00091010  RH  087%=      5-min Rain = 0
KPA1 142305Z 18023G28KT 01/M01 A3009 RMK A01 T00091010  RH  087%=      5-min Rain = 0
KPA1 142306Z 18020G26KT 01/M01 A3009 RMK A01 T00091010  RH  087%=      5-min Rain = 0
KPA1 142307Z 19019KT 01/M01 A3009 RMK A01 T00091010  RH  087%=      5-min Rain = 0
KPA1 142308Z 18018KT 01/M01 A3009 RMK A01 T00101009  RH  087%=      5-min Rain = 0
KPA1 142309Z 19017KT 01/M01 A3009 RMK A01 T00101009  RH  087%=      5-min Rain = 0
KPA1 142310Z 18015KT 01/M01 A3009 RMK A01 T00101009  RH  087%=      5-min Rain = 0
KPA1 142311Z 18018G24KT 01/M01 A3009 RMK A01 T00111008  RH  087%=      5-min Rain = 0
KPA1 142312Z 18022KT 01/M01 A3009 RMK A01 T00111009  RH  087%=      5-min Rain = 0
KPA1 142313Z 18018KT 01/M01 A3009 RMK A01 T00101010  RH  087%=      5-min Rain = 0
KPA1 142314Z 18019KT 01/M01 A3009 RMK A01 T00101010  RH  087%=      5-min Rain = 0
KPA1 142315Z 18019G24KT 01/M01 A3009 RMK A01 T00091010  RH  087%=      5-min Rain = 0
KPA1 142316Z 18018KT 01/M01 A3009 RMK A01 T00091010  RH  087%=      5-min Rain = 0
KPA1 142317Z 18022KT 01/M01 A3009 RMK A01 T00091009  RH  087%=      5-min Rain = 0
KPA1 142318Z 19021KT 01/M01 A3009 RMK A01 T00091010  RH  087%=      5-min Rain = 0
KPA1 142319Z 18021KT 01/M01 A3009 RMK A01 T00091010  RH  087%=      5-min Rain = 0
KPA1 142320Z 19019KT 01/M01 A3009 RMK A01 T00091009  RH  088%=      5-min Rain = 0
KPA1 142321Z 19021KT 01/M01 A3009 RMK A01 T00091009  RH  088%=      5-min Rain = 0
KPA1 142322Z 19021KT 01/M01 A3009 RMK A01 T00091009  RH  088%=      5-min Rain = 0
KPA1 142323Z 19019KT 01/M01 A3009 RMK A01 T00091009  RH  088%=      5-min Rain = 0
KPA1 142324Z 18019KT 01/M01 A3009 RMK A01 T00081009  RH  088%=      5-min Rain = 0
KPA1 142325Z 18020KT 01/M01 A3009 RMK A01 T00081009  RH  088%=      5-min Rain = 0
KPA1 142326Z 17020KT 01/M01 A3009 RMK A01 T00081010  RH  088%=      5-min Rain = 0
KPA1 142327Z 17018G23KT 01/M01 A3009 RMK A01 T00071010  RH  088%=      5-min Rain = 0
KPA1 142328Z 18019KT 01/M01 A3009 RMK A01 T00071010  RH  089%=      5-min Rain = 0
KPA1 142329Z 18018KT 01/M01 A3009 RMK A01 T00061010  RH  089%=      5-min Rain = 0
KPA1 142330Z 18017KT 01/M01 A3009 RMK A01 T00071009  RH  089%=      5-min Rain = 0
KPA1 142331Z 18017KT 01/M01 A3009 RMK A01 T00071009  RH  089%=      5-min Rain = 0
KPA1 142332Z 19015KT 01/M01 A3009 RMK A01 T00071009  RH  089%=      5-min Rain = 0
KPA1 142333Z 19021KT 01/M01 A3009 RMK A01 T00081008  RH  089%=      5-min Rain = 0
KPA1 142334Z 19023KT 01/M01 A3009 RMK A01 T00081009  RH  089%=      5-min Rain = 0
KPA1 142335Z 19021KT 01/M01 A3009 RMK A01 T00071009  RH  089%=      5-min Rain = 0
KPA1 142336Z 19019KT 01/M01 A3009 RMK A01 T00071009  RH  089%=      5-min Rain = 0
KPA1 142337Z 19019KT 01/M01 A3009 RMK A01 T00071009  RH  089%=      5-min Rain = 0
KPA1 142338Z 18019G24KT 01/M01 A3009 RMK A01 T00071009  RH  089%=      5-min Rain = 0
KPA1 142339Z 18021KT 01/M01 A3009 RMK A01 T00071009  RH  089%=      5-min Rain = 0
KPA1 142340Z 18019KT 01/M01 A3009 RMK A01 T00071009  RH  089%=      5-min Rain = 0
KPA1 142341Z 19016KT 01/M01 A3009 RMK A01 T00071009  RH  090%=      5-min Rain = 0
KPA1 142342Z 18017G22KT 01/M01 A3009 RMK A01 T00061009  RH  090%=      5-min Rain = 0
KPA1 142343Z 18018KT 01/M01 A3008 RMK A01 T00071008  RH  090%=      5-min Rain = 0
KPA1 142344Z 18020KT 01/M01 A3008 RMK A01 T00061008  RH  090%=      5-min Rain = 0
KPA1 142345Z 18021G27KT 01/M01 A3008 RMK A01 T00061009  RH  090%=      5-min Rain = 0
KPA1 142346Z 18019G24KT 01/M01 A3008 RMK A01 T00061009  RH  090%=      5-min Rain = 0
KPA1 142347Z 18018KT 01/M01 A3008 RMK A01 T00061009  RH  090%=      5-min Rain = 0
KPA1 142348Z 18021KT 01/M01 A3008 RMK A01 T00061008  RH  090%=      5-min Rain = 0
KPA1 142349Z 18021KT 01/M01 A3008 RMK A01 T00061008  RH  090%=      5-min Rain = 0
KPA1 142350Z 19019KT 01/M01 A3008 RMK A01 T00061008  RH  091%=      5-min Rain = 0
KPA1 142351Z 19019G24KT 01/M01 A3008 RMK A01 T00061008  RH  091%=      5-min Rain = 0
KPA1 142352Z 19021KT 01/M01 A3008 RMK A01 T00061008  RH  091%=      5-min Rain = 0
KPA1 142353Z 18018KT 01/M01 A3008 RMK A01 T00061008  RH  091%=      5-min Rain = 0
KPA1 142354Z 18018G24KT 01/M01 A3008 RMK A01 T00061008  RH  091%=      5-min Rain = 0
KPA1 142355Z 18021KT 01/M01 A3008 RMK A01 T00061008  RH  091%=      5-min Rain = 0
KPA1 142356Z 18020G25KT 01/M01 A3008 RMK A01 T00051008  RH  091%=      5-min Rain = 0
KPA1 142357Z 18021KT 01/M01 A3008 RMK A01 T00061008  RH  091%=      5-min Rain = 0
KPA1 142358Z 18020KT 01/M01 A3008 RMK A01 T00061008  RH  091%=      5-min Rain = 0
KPA1 142359Z 18017G24KT 01/M01 A3008 RMK A01 T00051008  RH  091%=      5-min Rain = 0
KPA1 150000Z 18023KT 01/M01 A3008 RMK A01 T00051008  RH  091%=      5-min Rain = 0
KPA1 150001Z 18022KT 01/M01 A3008 RMK A01 T00051008  RH  091%=      5-min Rain = 0
KPA1 150002Z 18021KT 01/M01 A3008 RMK A01 T00051008  RH  091%=      5-min Rain = 0
KPA1 150003Z 18019KT 01/M01 A3008 RMK A01 T00051008  RH  091%=      5-min Rain = 0
KPA1 150004Z 18020KT 01/M01 A3008 RMK A01 T00051008  RH  091%=      5-min Rain = 0
KPA1 150005Z 19021KT 01/M01 A3008 RMK A01 T00051007  RH  091%=      5-min Rain = 0
KPA1 150006Z 18020KT 01/M01 A3008 RMK A01 T00051008  RH  091%=      5-min Rain = 0
KPA1 150007Z 18020KT 01/M01 A3008 RMK A01 T00051008  RH  091%=      5-min Rain = 0
KPA1 150008Z 18021KT 01/M01 A3008 RMK A01 T00051008  RH  091%=      5-min Rain = 0
KPA1 150009Z 18019KT 01/M01 A3008 RMK A01 T00051007  RH  092%=      5-min Rain = 0
KPA1 150010Z 18020KT 01/M01 A3008 RMK A01 T00051008  RH  092%=      5-min Rain = 0
KPA1 150011Z 18021KT 01/M01 A3008 RMK A01 T00051007  RH  092%=      5-min Rain = 0
KPA1 150012Z 18019KT 00/M01 A3008 RMK A01 T00041008  RH  092%=      5-min Rain = 0
KPA1 150013Z 18018KT 00/M01 A3008 RMK A01 T00041008  RH  092%=      5-min Rain = 0
KPA1 150014Z 18017G22KT 00/M01 A3008 RMK A01 T00041007  RH  092%=      5-min Rain = 0
KPA1 150015Z 18020KT 00/M01 A3008 RMK A01 T00041008  RH  092%=      5-min Rain = 0
KPA1 150016Z 18020KT 00/M01 A3008 RMK A01 T00041007  RH  092%=      5-min Rain = 0
KPA1 150017Z 18019KT 00/M01 A3008 RMK A01 T00041007  RH  092%=      5-min Rain = 0
KPA1 150018Z 18016KT 00/M01 A3007 RMK A01 T00041007  RH  092%=      5-min Rain = 0
KPA1 150019Z 18018G24KT 00/M01 A3007 RMK A01 T00041007  RH  092%=      5-min Rain = 0
KPA1 150020Z 18022G27KT 00/M01 A3007 RMK A01 T00041007  RH  092%=      5-min Rain = 0
KPA1 150021Z 18019KT 00/M01 A3007 RMK A01 T00041007  RH  092%=      5-min Rain = 0
KPA1 150022Z 18018G25KT 00/M01 A3008 RMK A01 T00041007  RH  092%=      5-min Rain = 0
KPA1 150023Z 18024KT 00/M01 A3007 RMK A01 T00041007  RH  092%=      5-min Rain = 0
KPA1 150024Z 18022KT 00/M01 A3007 RMK A01 T00041007  RH  092%=      5-min Rain = 0
KPA1 150025Z 19018G23KT 00/M01 A3008 RMK A01 T00041007  RH  092%=      5-min Rain = 0
KPA1 150026Z 18019KT 00/M01 A3008 RMK A01 T00041007  RH  092%=      5-min Rain = 0
KPA1 150027Z 18015G20KT 00/M01 A3008 RMK A01 T00041007  RH  092%=      5-min Rain = 0
KPA1 150028Z 18020KT 00/M01 A3007 RMK A01 T00041007  RH  092%=      5-min Rain = 0
KPA1 150029Z 18017KT 00/M01 A3008 RMK A01 T00041007  RH  092%=      5-min Rain = 0
KPA1 150030Z 18020KT 00/M01 A3008 RMK A01 T00041007  RH  092%=      5-min Rain = 0
KPA1 150031Z 18020KT 00/M01 A3008 RMK A01 T00041007  RH  092%=      5-min Rain = 0
KPA1 150032Z 18019KT 00/M01 A3008 RMK A01 T00041007  RH  092%=      5-min Rain = 0
KPA1 150033Z 18017G22KT 00/M01 A3008 RMK A01 T00041007  RH  092%=      5-min Rain = 0
KPA1 150034Z 18017KT 00/M01 A3008 RMK A01 T00041007  RH  092%=      5-min Rain = 0
KPA1 150035Z 18018G23KT 00/M01 A3007 RMK A01 T00041007  RH  092%=      5-min Rain = 0
KPA1 150036Z 18019G26KT 00/M01 A3008 RMK A01 T00041007  RH  092%=      5-min Rain = 0
KPA1 150037Z 18021KT 00/M01 A3008 RMK A01 T00031007  RH  093%=      5-min Rain = 0
KPA1 150038Z 18023KT 00/M01 A3007 RMK A01 T00031007  RH  093%=      5-min Rain = 0
KPA1 150039Z 18022KT 00/M01 A3008 RMK A01 T00031007  RH  093%=      5-min Rain = 0
KPA1 150040Z 18020KT 00/M01 A3007 RMK A01 T00031007  RH  093%=      5-min Rain = 0
KPA1 150041Z 18018KT 00/M01 A3007 RMK A01 T00031007  RH  093%=      5-min Rain = 0
KPA1 150042Z 18020KT 00/M01 A3007 RMK A01 T00031007  RH  093%=      5-min Rain = 0
KPA1 150043Z 18022KT 00/M01 A3007 RMK A01 T00031007  RH  093%=      5-min Rain = 0
KPA1 150044Z 18020KT 00/M01 A3007 RMK A01 T00041007  RH  093%=      5-min Rain = 0
KPA1 150045Z 18023KT 00/M01 A3007 RMK A01 T00031007  RH  093%=      5-min Rain = 0
KPA1 150046Z 18020KT 00/M01 A3007 RMK A01 T00031007  RH  093%=      5-min Rain = 0
KPA1 150047Z 18016KT 00/M01 A3007 RMK A01 T00031007  RH  093%=      5-min Rain = 0
KPA1 150048Z 18018G24KT 00/M01 A3007 RMK A01 T00031007  RH  093%=      5-min Rain = 0
KPA1 150049Z 18020KT 00/M01 A3007 RMK A01 T00031007  RH  093%=      5-min Rain = 0
KPA1 150050Z 18020G26KT 00/M01 A3007 RMK A01 T00031007  RH  093%=      5-min Rain = 0
KPA1 150051Z 18019G24KT 00/M01 A3007 RMK A01 T00041007  RH  093%=      5-min Rain = 0
KPA1 150052Z 18020KT 00/M01 A3007 RMK A01 T00031007  RH  093%=      5-min Rain = 0
KPA1 150053Z 18022KT 00/M01 A3007 RMK A01 T00031007  RH  093%=      5-min Rain = 0
KPA1 150054Z 18020KT 00/M01 A3007 RMK A01 T00041007  RH  093%=      5-min Rain = 0
KPA1 150055Z 18017KT 00/M01 A3007 RMK A01 T00031007  RH  092%=      5-min Rain = 0
KPA1 150056Z 18018KT 00/M01 A3007 RMK A01 T00031007  RH  092%=      5-min Rain = 0
KPA1 150057Z 18021KT 00/M01 A3007 RMK A01 T00031008  RH  092%=      5-min Rain = 0
KPA1 150058Z 18022G27KT 00/M01 A3007 RMK A01 T00031007  RH  092%=      5-min Rain = 0
KPA1 150059Z 18023KT 00/M01 A3007 RMK A01 T00031007  RH  093%=      5-min Rain = 0
KPA1 150100Z 18021KT 00/M01 A3007 RMK A01 T00031007  RH  093%=      5-min Rain = 0
KPA1 150101Z 18020KT 00/M01 A3007 RMK A01 T00031007  RH  093%=      5-min Rain = 0
KPA1 150102Z 18019KT 00/M01 A3007 RMK A01 T00031007  RH  093%=      5-min Rain = 0
KPA1 150103Z 18023G28KT 00/M01 A3007 RMK A01 T00031008  RH  093%=      5-min Rain = 0
KPA1 150104Z 18024KT 00/M01 A3007 RMK A01 T00031008  RH  093%=      5-min Rain = 0
KPA1 150105Z 18020KT 00/M01 A3007 RMK A01 T00031008  RH  093%=      5-min Rain = 0
KPA1 150106Z 18021KT 00/M01 A3007 RMK A01 T00031008  RH  093%=      5-min Rain = 0
KPA1 150107Z 17020KT 00/M01 A3007 RMK A01 T00031008  RH  093%=      5-min Rain = 0
KPA1 150108Z 17019G26KT 00/M01 A3006 RMK A01 T00031008  RH  093%=      5-min Rain = 0
KPA1 150109Z 17023G28KT 00/M01 A3006 RMK A01 T00021008  RH  093%=      5-min Rain = 0
KPA1 150110Z 17023KT 00/M01 A3006 RMK A01 T00021008  RH  093%=      5-min Rain = 0
KPA1 150111Z 18021KT 00/M01 A3007 RMK A01 T00031008  RH  093%=      5-min Rain = 0
KPA1 150112Z 18020G25KT 00/M01 A3007 RMK A01 T00021008  RH  093%=      5-min Rain = 0
KPA1 150113Z 18023G28KT 00/M01 A3007 RMK A01 T00021008  RH  093%=      5-min Rain = 0
KPA1 150114Z 18019KT 00/M01 A3007 RMK A01 T00021007  RH  093%=      5-min Rain = 0
KPA1 150115Z 18018G23KT 00/M01 A3007 RMK A01 T00031007  RH  093%=      5-min Rain = 0
KPA1 150116Z 18022G27KT 00/M01 A3007 RMK A01 T00021008  RH  093%=      5-min Rain = 0
KPA1 150117Z 17021G26KT 00/M01 A3007 RMK A01 T00021007  RH  093%=      5-min Rain = 0
KPA1 150118Z 18023KT 00/M01 A3007 RMK A01 T00021007  RH  093%=      5-min Rain = 0
KPA1 150119Z 18022KT 00/M01 A3007 RMK A01 T00031007  RH  093%=      5-min Rain = 0
KPA1 150120Z 18022KT 00/M01 A3007 RMK A01 T00021007  RH  093%=      5-min Rain = 0
KPA1 150121Z 18021G26KT 00/M01 A3007 RMK A01 T00021008  RH  093%=      5-min Rain = 0
KPA1 150122Z 18022KT 00/M01 A3007 RMK A01 T00021008  RH  093%=      5-min Rain = 0
KPA1 150123Z 18023KT 00/M01 A3007 RMK A01 T00021008  RH  093%=      5-min Rain = 0
KPA1 150124Z 18020G25KT 00/M01 A3007 RMK A01 T00021008  RH  093%=      5-min Rain = 0
KPA1 150125Z 18022KT 00/M01 A3007 RMK A01 T00021008  RH  093%=      5-min Rain = 0
KPA1 150126Z 18020G25KT 00/M01 A3007 RMK A01 T00021007  RH  093%=      5-min Rain = 0
KPA1 150127Z 18021G27KT 00/M01 A3007 RMK A01 T00021007  RH  093%=      5-min Rain = 0
KPA1 150128Z 18024G29KT 00/M01 A3007 RMK A01 T00021008  RH  093%=      5-min Rain = 0
KPA1 150129Z 18021KT 00/M01 A3007 RMK A01 T00021008  RH  093%=      5-min Rain = 0
KPA1 150130Z 18020KT 00/M01 A3007 RMK A01 T00021008  RH  093%=      5-min Rain = 0
KPA1 150131Z 18021KT 00/M01 A3007 RMK A01 T00021008  RH  093%=      5-min Rain = 0
KPA1 150132Z 18020G25KT 00/M01 A3007 RMK A01 T00021008  RH  093%=      5-min Rain = 0
KPA1 150133Z 18017G23KT 00/M01 A3007 RMK A01 T00021008  RH  093%=      5-min Rain = 0
KPA1 150134Z 18019G26KT 00/M01 A3008 RMK A01 T00021008  RH  093%=      5-min Rain = 0
KPA1 150135Z 18015KT 00/M01 A3008 RMK A01 T00021008  RH  093%=      5-min Rain = 0
KPA1 150136Z 18018G24KT 00/M01 A3008 RMK A01 T00021008  RH  093%=      5-min Rain = 0
KPA1 150137Z 18021G27KT 00/M01 A3008 RMK A01 T00021008  RH  093%=      5-min Rain = 0
KPA1 150138Z 18019G26KT 00/M01 A3008 RMK A01 T00021008  RH  093%=      5-min Rain = 0
KPA1 150139Z 18020G25KT 00/M01 A3008 RMK A01 T00021008  RH  093%=      5-min Rain = 0
KPA1 150140Z 18022KT 00/M01 A3008 RMK A01 T00021008  RH  093%=      5-min Rain = 0
KPA1 150141Z 19022KT 00/M01 A3008 RMK A01 T00021008  RH  093%=      5-min Rain = 0
KPA1 150142Z 18023G30KT 00/M01 A3008 RMK A01 T00021008  RH  093%=      5-min Rain = 0
KPA1 150143Z 18025KT 00/M01 A3008 RMK A01 T00021008  RH  093%=      5-min Rain = 0
KPA1 150144Z 18020KT 00/M01 A3008 RMK A01 T00011008  RH  093%=      5-min Rain = 0
KPA1 150145Z 19019G24KT 00/M01 A3008 RMK A01 T00011008  RH  093%=      5-min Rain = 0
KPA1 150146Z 19022G28KT 00/M01 A3007 RMK A01 T00021008  RH  093%=      5-min Rain = 0
KPA1 150147Z 19018KT 00/M01 A3007 RMK A01 T00021008  RH  093%=      5-min Rain = 0
KPA1 150148Z 19020G26KT 00/M01 A3007 RMK A01 T00011008  RH  093%=      5-min Rain = 0
KPA1 150149Z 19023G28KT 00/M01 A3007 RMK A01 T00011008  RH  093%=      5-min Rain = 0
KPA1 150150Z 18022G30KT 00/M01 A3007 RMK A01 T00011008  RH  093%=      5-min Rain = 0
KPA1 150151Z 18021G26KT 00/M01 A3007 RMK A01 T00011008  RH  093%=      5-min Rain = 0
KPA1 150152Z 19026G32KT 00/M01 A3007 RMK A01 T00011008  RH  094%=      5-min Rain = 0
KPA1 150153Z 18023G28KT 00/M01 A3007 RMK A01 T00021008  RH  094%=      5-min Rain = 0
KPA1 150154Z 18023KT 00/M01 A3007 RMK A01 T00021008  RH  094%=      5-min Rain = 0
KPA1 150155Z 18019G24KT 00/M01 A3007 RMK A01 T00011008  RH  094%=      5-min Rain = 0
KPA1 150156Z 18017G23KT 00/M01 A3007 RMK A01 T00021008  RH  094%=      5-min Rain = 0
KPA1 150157Z 19022G27KT 00/M01 A3007 RMK A01 T00011008  RH  094%=      5-min Rain = 0
KPA1 150158Z 18021G26KT 00/M01 A3007 RMK A01 T00011007  RH  094%=      5-min Rain = 0
KPA1 150159Z 18021KT 00/M01 A3007 RMK A01 T00021007  RH  094%=      5-min Rain = 0
KPA1 150200Z 19025KT 00/M01 A3007 RMK A01 T00011007  RH  094%=      5-min Rain = 0
KPA1 150201Z 19026KT 00/M01 A3007 RMK A01 T00021007  RH  094%=      5-min Rain = 0
KPA1 150202Z 19024KT 00/M01 A3007 RMK A01 T00021007  RH  094%=      5-min Rain = 0
KPA1 150203Z 19025G31KT 00/M01 A3007 RMK A01 T00021007  RH  094%=      5-min Rain = 0
KPA1 150204Z 19019KT 00/M01 A3007 RMK A01 T00021007  RH  094%=      5-min Rain = 0
KPA1 150205Z 19019G24KT 00/M01 A3007 RMK A01 T00021007  RH  094%=      5-min Rain = 0
KPA1 150206Z 19018G26KT 00/M01 A3007 RMK A01 T00021007  RH  094%=      5-min Rain = 0
KPA1 150207Z 19020G26KT 00/M01 A3007 RMK A01 T00021007  RH  094%=      5-min Rain = 0
KPA1 150208Z 19021G26KT 00/M01 A3007 RMK A01 T00021006  RH  094%=      5-min Rain = 0
KPA1 150209Z 19017G22KT 00/M01 A3008 RMK A01 T00021006  RH  094%=      5-min Rain = 0
KPA1 150210Z 19023KT 00/M01 A3007 RMK A01 T00031006  RH  094%=      5-min Rain = 0
KPA1 150211Z 19020KT 00/M01 A3008 RMK A01 T00021006  RH  094%=      5-min Rain = 0
KPA1 150212Z 20021KT 00/M01 A3008 RMK A01 T00031006  RH  094%=      5-min Rain = 0
KPA1 150213Z 19020KT 00/M01 A3008 RMK A01 T00021006  RH  094%=      5-min Rain = 0
KPA1 150214Z 19018KT 00/M01 A3008 RMK A01 T00021006  RH  094%=      5-min Rain = 0
KPA1 150215Z 19018KT 00/M01 A3008 RMK A01 T00021006  RH  094%=      5-min Rain = 0
KPA1 150216Z 19021KT 00/M01 A3007 RMK A01 T00031006  RH  094%=      5-min Rain = 0
KPA1 150217Z 20020KT 00/M01 A3007 RMK A01 T00031006  RH  094%=      5-min Rain = 0
KPA1 150218Z 19021KT 00/M01 A3008 RMK A01 T00031006  RH  094%=      5-min Rain = 0
KPA1 150219Z 19017G24KT 00/M01 A3008 RMK A01 T00031006  RH  094%=      5-min Rain = 0
KPA1 150220Z 19022G27KT 00/M01 A3007 RMK A01 T00031006  RH  094%=      5-min Rain = 0
KPA1 150221Z 19020KT 00/M01 A3007 RMK A01 T00031006  RH  094%=      5-min Rain = 0
KPA1 150222Z 19022G30KT 00/M01 A3007 RMK A01 T00031006  RH  094%=      5-min Rain = 0
KPA1 150223Z 19019G25KT 00/M01 A3007 RMK A01 T00031006  RH  094%=      5-min Rain = 0
KPA1 150224Z 19022G28KT 00/M01 A3007 RMK A01 T00031006  RH  094%=      5-min Rain = 0
KPA1 150225Z 19022G27KT 00/M01 A3007 RMK A01 T00031006  RH  094%=      5-min Rain = 0
KPA1 150226Z 19021KT 00/M01 A3007 RMK A01 T00031006  RH  094%=      5-min Rain = 0
KPA1 150227Z 19023KT 00/M01 A3007 RMK A01 T00031006  RH  094%=      5-min Rain = 0
KPA1 150228Z 19023KT 00/M01 A3007 RMK A01 T00031006  RH  094%=      5-min Rain = 0
KPA1 150229Z 19021G27KT 00/M01 A3007 RMK A01 T00031006  RH  094%=      5-min Rain = 0
KPA1 150230Z 19021G27KT 00/M01 A3007 RMK A01 T00031006  RH  094%=      5-min Rain = 0
KPA1 150231Z 18022G29KT 00/M01 A3007 RMK A01 T00031006  RH  094%=      5-min Rain = 0
KPA1 150232Z 19022G29KT 00/M01 A3007 RMK A01 T00031006  RH  094%=      5-min Rain = 0
KPA1 150233Z 19024KT 00/M01 A3007 RMK A01 T00031006  RH  094%=      5-min Rain = 0
KPA1 150234Z 19023KT 00/M01 A3007 RMK A01 T00031006  RH  094%=      5-min Rain = 0
KPA1 150235Z 19025KT 00/M01 A3007 RMK A01 T00031006  RH  094%=      5-min Rain = 0
KPA1 150236Z 19022G27KT 00/M01 A3007 RMK A01 T00031006  RH  094%=      5-min Rain = 0
KPA1 150237Z 19022G27KT 00/M01 A3007 RMK A01 T00031005  RH  094%=      5-min Rain = 0
KPA1 150238Z 19018KT 00/M01 A3008 RMK A01 T00031006  RH  094%=      5-min Rain = 0
KPA1 150239Z 19018KT 00/M01 A3008 RMK A01 T00031005  RH  094%=      5-min Rain = 0
KPA1 150240Z 19020G25KT 00/M01 A3007 RMK A01 T00031005  RH  094%=      5-min Rain = 0
KPA1 150241Z 18020KT 00/M01 A3008 RMK A01 T00031005  RH  094%=      5-min Rain = 0
KPA1 150242Z 19019KT 00/M01 A3008 RMK A01 T00031005  RH  094%=      5-min Rain = 0
KPA1 150243Z 18018KT 00/M01 A3008 RMK A01 T00031005  RH  094%=      5-min Rain = 0
KPA1 150244Z 19018G23KT 00/M01 A3008 RMK A01 T00031005  RH  094%=      5-min Rain = 0
KPA1 150245Z 18018KT 00/M01 A3008 RMK A01 T00031005  RH  094%=      5-min Rain = 0
KPA1 150246Z 18019G24KT 00/M01 A3008 RMK A01 T00031005  RH  094%=      5-min Rain = 0
KPA1 150247Z 18022KT 00/M01 A3008 RMK A01 T00031005  RH  094%=      5-min Rain = 0
KPA1 150248Z 19019KT 00/M01 A3008 RMK A01 T00031005  RH  095%=      5-min Rain = 0
KPA1 150249Z 18017KT 00/M01 A3008 RMK A01 T00031005  RH  095%=      5-min Rain = 0
KPA1 150250Z 19018KT 00/M01 A3008 RMK A01 T00031005  RH  095%=      5-min Rain = 0
KPA1 150251Z 19021KT 00/M01 A3008 RMK A01 T00031005  RH  095%=      5-min Rain = 0
KPA1 150252Z 18021KT 00/M01 A3008 RMK A01 T00031005  RH  095%=      5-min Rain = 0
KPA1 150253Z 19018KT 00/M01 A3008 RMK A01 T00031005  RH  095%=      5-min Rain = 0
KPA1 150254Z 18016KT 00/M01 A3008 RMK A01 T00031005  RH  094%=      5-min Rain = 0
KPA1 150255Z 19019G24KT 00/M01 A3008 RMK A01 T00031005  RH  095%=      5-min Rain = 0
KPA1 150256Z 19019KT 00/M01 A3008 RMK A01 T00031005  RH  094%=      5-min Rain = 0
KPA1 150257Z 19015KT 00/M01 A3008 RMK A01 T00031005  RH  094%=      5-min Rain = 0
KPA1 150258Z 19014KT 00/M01 A3008 RMK A01 T00031005  RH  094%=      5-min Rain = 0
KPA1 150259Z 19019KT 00/M01 A3008 RMK A01 T00031005  RH  094%=      5-min Rain = 0
KPA1 150300Z 19018G25KT 00/M01 A3008 RMK A01 T00031005  RH  094%=      5-min Rain = 0
KPA1 150301Z 19016KT 00/M01 A3008 RMK A01 T00031005  RH  094%=      5-min Rain = 0
KPA1 150302Z 19018KT 00/M01 A3008 RMK A01 T00021006  RH  094%=      5-min Rain = 0
KPA1 150303Z 19017KT 00/M01 A3008 RMK A01 T00021006  RH  094%=      5-min Rain = 0
KPA1 150304Z 19016KT 00/M01 A3008 RMK A01 T00031006  RH  094%=      5-min Rain = 0
KPA1 150305Z 19013KT 00/M01 A3008 RMK A01 T00021007  RH  094%=      5-min Rain = 0
KPA1 150306Z 19013G19KT 00/M01 A3008 RMK A01 T00021007  RH  094%=      5-min Rain = 0
KPA1 150307Z 19016G21KT 00/M01 A3008 RMK A01 T00011008  RH  094%=      5-min Rain = 0
KPA1 150308Z 18014KT 00/M01 A3008 RMK A01 T00011007  RH  094%=      5-min Rain = 0
KPA1 150309Z 18014KT 00/01 A3008 RMK A01 T000000-8  RH  094%=      5-min Rain = 0
KPA1 150310Z 18014KT 00/01 A3008 RMK A01 T000000-8  RH  094%=      5-min Rain = 0
KPA1 150311Z 19014KT 00/01 A3008 RMK A01 T000000-8  RH  095%=      5-min Rain = 0
KPA1 150312Z 18014KT 00/01 A3008 RMK A01 T00-000-8  RH  095%=      5-min Rain = 0
KPA1 150313Z 19014KT 00/01 A3008 RMK A01 T00-000-8  RH  095%=      5-min Rain = 0
KPA1 150314Z 19015KT 00/01 A3008 RMK A01 T00-000-8  RH  095%=      5-min Rain = 0
KPA1 150315Z 18015KT M00/M01 A3008 RMK A01 T10011008  RH  095%=      5-min Rain = 0
KPA1 150316Z 18012KT M00/M01 A3008 RMK A01 T10011008  RH  095%=      5-min Rain = 0
KPA1 150317Z 19015KT M00/M01 A3007 RMK A01 T10011009  RH  095%=      5-min Rain = 0
KPA1 150318Z 18015KT M00/M01 A3007 RMK A01 T10011009  RH  095%=      5-min Rain = 0
KPA1 150319Z 18016KT M00/M01 A3007 RMK A01 T10011008  RH  095%=      5-min Rain = 0
KPA1 150320Z 18018KT M00/M01 A3007 RMK A01 T10011008  RH  095%=      5-min Rain = 0
KPA1 150321Z 18017KT M00/M01 A3007 RMK A01 T10011008  RH  095%=      5-min Rain = 0
KPA1 150322Z 18017KT 00/01 A3007 RMK A01 T00-000-7  RH  095%=      5-min Rain = 0
KPA1 150323Z 19018KT 00/01 A3007 RMK A01 T000000-7  RH  095%=      5-min Rain = 0
KPA1 150324Z 19017G22KT 00/01 A3007 RMK A01 T000000-7  RH  095%=      5-min Rain = 0
KPA1 150325Z 18015KT 00/01 A3007 RMK A01 T000000-7  RH  095%=      5-min Rain = 0
KPA1 150326Z 19016KT 00/M01 A3007 RMK A01 T00011007  RH  095%=      5-min Rain = 0
KPA1 150327Z 19018G23KT 00/M01 A3007 RMK A01 T00011006  RH  095%=      5-min Rain = 0
KPA1 150328Z 19016KT 00/M01 A3007 RMK A01 T00011006  RH  095%=      5-min Rain = 0
KPA1 150329Z 19017KT 00/M01 A3007 RMK A01 T00021006  RH  095%=      5-min Rain = 0
KPA1 150330Z 19016G21KT 00/M01 A3007 RMK A01 T00011006  RH  095%=      5-min Rain = 0
KPA1 150331Z 19018KT 00/M01 A3007 RMK A01 T00011006  RH  095%=      5-min Rain = 0
KPA1 150332Z 19021KT 00/M01 A3007 RMK A01 T00021006  RH  095%=      5-min Rain = 0
KPA1 150333Z 19018G24KT 00/M01 A3007 RMK A01 T00031005  RH  095%=      5-min Rain = 0
KPA1 150334Z 19019KT 00/M01 A3007 RMK A01 T00031005  RH  094%=      5-min Rain = 0
KPA1 150335Z 19016KT 00/M01 A3007 RMK A01 T00031005  RH  094%=      5-min Rain = 0
KPA1 150336Z 19017G22KT 00/M01 A3007 RMK A01 T00031005  RH  094%=      5-min Rain = 0
KPA1 150337Z 19018KT 00/M01 A3007 RMK A01 T00021006  RH  094%=      5-min Rain = 0
KPA1 150338Z 19019KT 00/M01 A3007 RMK A01 T00031005  RH  094%=      5-min Rain = 0
KPA1 150339Z 19018G24KT 00/M01 A3007 RMK A01 T00021005  RH  095%=      5-min Rain = 0
KPA1 150340Z 19017KT 00/M01 A3007 RMK A01 T00031005  RH  095%=      5-min Rain = 0
KPA1 150341Z 19019G25KT 00/M01 A3007 RMK A01 T00031005  RH  095%=      5-min Rain = 0
KPA1 150342Z 19016KT 00/M01 A3008 RMK A01 T00031005  RH  095%=      5-min Rain = 0
KPA1 150343Z 19015KT 00/M01 A3008 RMK A01 T00031005  RH  094%=      5-min Rain = 0
KPA1 150344Z 19016KT 00/M01 A3008 RMK A01 T00021006  RH  094%=      5-min Rain = 0
KPA1 150345Z 19016KT 00/M01 A3008 RMK A01 T00021005  RH  095%=      5-min Rain = 0
KPA1 150346Z 19015KT 00/M01 A3008 RMK A01 T00021005  RH  095%=      5-min Rain = 0
KPA1 150347Z 19013KT 00/M01 A3008 RMK A01 T00021006  RH  095%=      5-min Rain = 0
KPA1 150348Z 19015KT 00/M01 A3008 RMK A01 T00021005  RH  095%=      5-min Rain = 0
KPA1 150349Z 19013KT 00/M01 A3008 RMK A01 T00021005  RH  095%=      5-min Rain = 0
KPA1 150350Z 19014KT 00/M01 A3008 RMK A01 T00021005  RH  095%=      5-min Rain = 0
KPA1 150351Z 19014KT 00/M01 A3008 RMK A01 T00021005  RH  095%=      5-min Rain = 0
KPA1 150352Z 19013KT 00/M01 A3008 RMK A01 T00021005  RH  095%=      5-min Rain = 0
KPA1 150353Z 19014KT 00/M01 A3008 RMK A01 T00021005  RH  095%=      5-min Rain = 0
KPA1 150354Z 19014KT 00/M01 A3008 RMK A01 T00021005  RH  095%=      5-min Rain = 0
KPA1 150355Z 19014KT 00/M00 A3008 RMK A01 T00021004  RH  096%=      5-min Rain = 0
KPA1 150356Z 19014KT 00/M00 A3008 RMK A01 T00021004  RH  096%=      5-min Rain = 0
KPA1 150357Z 19014KT 00/M00 A3008 RMK A01 T00031003  RH  096%=      5-min Rain = 0
KPA1 150358Z 19015G20KT 00/M00 A3008 RMK A01 T00031003  RH  096%=      5-min Rain = 0
KPA1 150359Z 19014KT 00/M00 A3008 RMK A01 T00041002  RH  096%=      5-min Rain = 0
KPA1 150400Z 19014G19KT 00/M00 A3008 RMK A01 T00041002  RH  095%=      5-min Rain = 0
KPA1 150401Z 19015KT 01/M00 A3008 RMK A01 T00051002  RH  095%=      5-min Rain = 0
KPA1 150402Z 19014KT 01/M00 A3008 RMK A01 T00051002  RH  095%=      5-min Rain = 0
KPA1 150403Z 20013KT 01/M00 A3008 RMK A01 T00051002  RH  095%=      5-min Rain = 0
KPA1 150404Z 20013KT 01/M00 A3008 RMK A01 T00051002  RH  095%=      5-min Rain = 0
KPA1 150405Z 19013KT 01/M00 A3008 RMK A01 T00051002  RH  095%=      5-min Rain = 0
KPA1 150406Z 20014KT 01/M00 A3008 RMK A01 T00051002  RH  095%=      5-min Rain = 0
KPA1 150407Z 20014KT 01/M00 A3008 RMK A01 T00061001  RH  095%=      5-min Rain = 0
KPA1 150408Z 19015KT 01/M00 A3008 RMK A01 T00061001  RH  095%=      5-min Rain = 0
KPA1 150409Z 19015KT 01/00 A3008 RMK A01 T000700-0  RH  095%=      5-min Rain = 0
KPA1 150410Z 19015KT 01/00 A3008 RMK A01 T000700-0  RH  095%=      5-min Rain = 0
KPA1 150411Z 19015KT 01/00 A3008 RMK A01 T000700-0  RH  095%=      5-min Rain = 0
KPA1 150412Z 20012KT 01/00 A3008 RMK A01 T00080000  RH  095%=      5-min Rain = 0
KPA1 150413Z 19013KT 01/M00 A3008 RMK A01 T00071001  RH  094%=      5-min Rain = 0
KPA1 150414Z 19013KT 01/M00 A3008 RMK A01 T00071001  RH  094%=      5-min Rain = 0
KPA1 150415Z 19015KT 01/M00 A3008 RMK A01 T00071001  RH  095%=      5-min Rain = 0
KPA1 150416Z 19015KT 01/00 A3008 RMK A01 T000700-0  RH  095%=      5-min Rain = 0
KPA1 150417Z 19015KT 01/00 A3008 RMK A01 T00080000  RH  095%=      5-min Rain = 0
KPA1 150418Z 19014KT 01/00 A3008 RMK A01 T00080000  RH  095%=      5-min Rain = 0
KPA1 150419Z 19017KT 01/00 A3008 RMK A01 T00080000  RH  095%=      5-min Rain = 0
KPA1 150420Z 19015KT 01/00 A3008 RMK A01 T00080000  RH  095%=      5-min Rain = 0
KPA1 150421Z 19014KT 01/00 A3008 RMK A01 T00080000  RH  095%=      5-min Rain = 0
KPA1 150422Z 19017KT 01/00 A3008 RMK A01 T000800-0  RH  094%=      5-min Rain = 0
KPA1 150423Z 19016KT 01/00 A3008 RMK A01 T00080000  RH  095%=      5-min Rain = 0
KPA1 150424Z 19015KT 01/00 A3008 RMK A01 T00080001  RH  095%=      5-min Rain = 0
KPA1 150425Z 19016KT 01/00 A3008 RMK A01 T00080000  RH  095%=      5-min Rain = 0
KPA1 150426Z 18015KT 01/00 A3008 RMK A01 T00080000  RH  095%=      5-min Rain = 0
KPA1 150427Z 19016KT 01/00 A3008 RMK A01 T00080000  RH  094%=      5-min Rain = 0
KPA1 150428Z 19015G20KT 01/00 A3008 RMK A01 T00080000  RH  094%=      5-min Rain = 0
KPA1 150429Z 19016G21KT 01/00 A3008 RMK A01 T00080000  RH  095%=      5-min Rain = 0
KPA1 150430Z 18017KT 01/00 A3008 RMK A01 T00080000  RH  095%=      5-min Rain = 0
KPA1 150431Z 19017KT 01/00 A3008 RMK A01 T00080000  RH  095%=      5-min Rain = 0
KPA1 150432Z 18016KT 01/00 A3008 RMK A01 T00080001  RH  095%=      5-min Rain = 0
KPA1 150433Z 18015KT 01/00 A3008 RMK A01 T00080000  RH  094%=      5-min Rain = 0
KPA1 150434Z 19015KT 01/00 A3008 RMK A01 T000800-0  RH  094%=      5-min Rain = 0
KPA1 150435Z 18016KT 01/00 A3008 RMK A01 T000700-0  RH  095%=      5-min Rain = 0
KPA1 150436Z 18013KT 01/00 A3008 RMK A01 T00080000  RH  095%=      5-min Rain = 0
KPA1 150437Z 19014KT 01/00 A3008 RMK A01 T000700-0  RH  095%=      5-min Rain = 0
KPA1 150438Z 19016KT 01/00 A3008 RMK A01 T000700-0  RH  095%=      5-min Rain = 0
KPA1 150439Z 19015KT 01/00 A3008 RMK A01 T000700-0  RH  095%=      5-min Rain = 0
KPA1 150440Z 19014KT 01/00 A3008 RMK A01 T00070000  RH  095%=      5-min Rain = 0
KPA1 150441Z 18015KT 01/00 A3007 RMK A01 T00070000  RH  095%=      5-min Rain = 0
KPA1 150442Z 19014KT 01/00 A3007 RMK A01 T00070000  RH  095%=      5-min Rain = 0
KPA1 150443Z 19015KT 01/00 A3007 RMK A01 T00070000  RH  095%=      5-min Rain = 0
KPA1 150444Z 19015KT 01/00 A3007 RMK A01 T00070000  RH  095%=      5-min Rain = 0
KPA1 150445Z 19015KT 01/00 A3007 RMK A01 T000700-0  RH  095%=      5-min Rain = 0
KPA1 150446Z 19016KT 01/00 A3007 RMK A01 T000600-0  RH  095%=      5-min Rain = 0
KPA1 150447Z 18015KT 01/00 A3007 RMK A01 T000600-0  RH  095%=      5-min Rain = 0
KPA1 150448Z 19015KT 01/00 A3007 RMK A01 T00070000  RH  095%=      5-min Rain = 0
KPA1 150449Z 19015KT 01/00 A3007 RMK A01 T000600-0  RH  095%=      5-min Rain = 0
KPA1 150450Z 19015KT 01/00 A3007 RMK A01 T000600-0  RH  095%=      5-min Rain = 0
KPA1 150451Z 19015KT 01/00 A3007 RMK A01 T000600-0  RH  096%=      5-min Rain = 0
KPA1 150452Z 19015KT 01/00 A3007 RMK A01 T00060000  RH  096%=      5-min Rain = 0
KPA1 150453Z 19015KT 01/00 A3007 RMK A01 T00060000  RH  096%=      5-min Rain = 0
KPA1 150454Z 19014KT 01/00 A3007 RMK A01 T00060000  RH  096%=      5-min Rain = 0
KPA1 150455Z 19015KT 01/00 A3007 RMK A01 T000600-0  RH  096%=      5-min Rain = 0
KPA1 150456Z 18015KT 01/00 A3006 RMK A01 T000600-0  RH  096%=      5-min Rain = 0
KPA1 150457Z 19015KT 01/00 A3006 RMK A01 T00060000  RH  096%=      5-min Rain = 0
KPA1 150458Z 19014KT 01/00 A3006 RMK A01 T00060000  RH  096%=      5-min Rain = 0
KPA1 150459Z 19017KT 01/00 A3006 RMK A01 T00060000  RH  096%=      5-min Rain = 0
KPA1 150500Z 19015KT 01/00 A3006 RMK A01 T00060000  RH  096%=      5-min Rain = 0
KPA1 150501Z 19014KT 01/00 A3006 RMK A01 T00060000  RH  096%=      5-min Rain = 0
KPA1 150502Z 18015KT 01/00 A3006 RMK A01 T00060000  RH  096%=      5-min Rain = 0
KPA1 150503Z 18015KT 01/00 A3006 RMK A01 T00060000  RH  096%=      5-min Rain = 0
KPA1 150504Z 18016KT 01/00 A3006 RMK A01 T00060000  RH  096%=      5-min Rain = 0
KPA1 150505Z 18016KT 01/00 A3006 RMK A01 T00060000  RH  096%=      5-min Rain = 0
KPA1 150506Z 18015KT 01/00 A3006 RMK A01 T00060000  RH  096%=      5-min Rain = 0
KPA1 150507Z 18014KT 01/00 A3006 RMK A01 T00060000  RH  096%=      5-min Rain = 0
KPA1 150508Z 18015KT 01/00 A3006 RMK A01 T00060000  RH  096%=      5-min Rain = 0
KPA1 150509Z 18015KT 01/00 A3006 RMK A01 T00060000  RH  096%=      5-min Rain = 0
KPA1 150510Z 18014KT 01/00 A3006 RMK A01 T000500-0  RH  096%=      5-min Rain = 0
KPA1 150511Z 18013KT 01/M00 A3006 RMK A01 T00051001  RH  096%=      5-min Rain = 0
KPA1 150512Z 18014KT 00/M00 A3006 RMK A01 T00041002  RH  096%=      5-min Rain = 0
KPA1 150513Z 18014KT 00/M00 A3006 RMK A01 T00041002  RH  096%=      5-min Rain = 0
KPA1 150514Z 18014KT 00/M00 A3006 RMK A01 T00031002  RH  096%=      5-min Rain = 0
KPA1 150515Z 18013KT 00/M00 A3006 RMK A01 T00031002  RH  096%=      5-min Rain = 0
KPA1 150516Z 18014KT 00/M00 A3006 RMK A01 T00031002  RH  097%=      5-min Rain = 0
KPA1 150517Z 18014KT 00/M00 A3006 RMK A01 T00041001  RH  097%=      5-min Rain = 0
KPA1 150518Z 18014KT 00/00 A3006 RMK A01 T00040000  RH  097%=      5-min Rain = 0
KPA1 150519Z 18013KT 01/00 A3006 RMK A01 T00050001  RH  097%=      5-min Rain = 0
KPA1 150520Z 18014KT 01/00 A3006 RMK A01 T00060001  RH  097%=      5-min Rain = 0
KPA1 150521Z 18014KT 01/00 A3006 RMK A01 T00060001  RH  096%=      5-min Rain = 0
KPA1 150522Z 18015KT 01/00 A3006 RMK A01 T00060001  RH  097%=      5-min Rain = 0
KPA1 150523Z 18014KT 01/00 A3006 RMK A01 T00070002  RH  097%=      5-min Rain = 0
KPA1 150524Z 19014KT 01/00 A3006 RMK A01 T00070002  RH  096%=      5-min Rain = 0
KPA1 150525Z 19016KT 01/00 A3006 RMK A01 T00070002  RH  096%=      5-min Rain = 0
KPA1 150526Z 19014KT 01/00 A3006 RMK A01 T00080002  RH  096%=      5-min Rain = 0
KPA1 150527Z 19015KT 01/00 A3006 RMK A01 T00080003  RH  096%=      5-min Rain = 0
KPA1 150528Z 19014KT 01/00 A3006 RMK A01 T00080002  RH  096%=      5-min Rain = 0
KPA1 150529Z 19015KT 01/00 A3006 RMK A01 T00080002  RH  096%=      5-min Rain = 0
KPA1 150530Z 19013KT 01/00 A3005 RMK A01 T00080002  RH  096%=      5-min Rain = 0
KPA1 150531Z 19012KT 01/00 A3005 RMK A01 T00080002  RH  096%=      5-min Rain = 0
KPA1 150532Z 19014KT 01/00 A3005 RMK A01 T00080002  RH  096%=      5-min Rain = 0
KPA1 150533Z 19015KT 01/00 A3005 RMK A01 T00080002  RH  096%=      5-min Rain = 0
KPA1 150534Z 19014KT 01/00 A3006 RMK A01 T00080002  RH  096%=      5-min Rain = 0
KPA1 150535Z 19015KT 01/00 A3006 RMK A01 T00090003  RH  096%=      5-min Rain = 0
KPA1 150536Z 19014G19KT 01/00 A3006 RMK A01 T00090003  RH  096%=      5-min Rain = 0
KPA1 150537Z 19014KT 01/00 A3006 RMK A01 T00090002  RH  095%=      5-min Rain = 0
KPA1 150538Z 19015KT 01/00 A3006 RMK A01 T00090003  RH  095%=      5-min Rain = 0
KPA1 150539Z 19016KT 01/00 A3005 RMK A01 T00090003  RH  095%=      5-min Rain = 0
KPA1 150540Z 20015KT 01/00 A3006 RMK A01 T00100003  RH  095%=      5-min Rain = 0
KPA1 150541Z 19014KT 01/00 A3006 RMK A01 T00100003  RH  095%=      5-min Rain = 0
KPA1 150542Z 19013KT 01/00 A3006 RMK A01 T00100002  RH  095%=      5-min Rain = 0
KPA1 150543Z 20014KT 01/00 A3006 RMK A01 T00090002  RH  095%=      5-min Rain = 0
KPA1 150544Z 20014KT 01/00 A3006 RMK A01 T00090002  RH  095%=      5-min Rain = 0
KPA1 150545Z 20013KT 01/00 A3006 RMK A01 T00090002  RH  095%=      5-min Rain = 0
KPA1 150546Z 20016KT 01/00 A3006 RMK A01 T00090002  RH  095%=      5-min Rain = 0
KPA1 150547Z 19014KT 01/00 A3005 RMK A01 T00090002  RH  095%=      5-min Rain = 0
KPA1 150548Z 19014KT 01/00 A3005 RMK A01 T00090002  RH  095%=      5-min Rain = 0
KPA1 150549Z 19015KT 01/00 A3005 RMK A01 T00090002  RH  095%=      5-min Rain = 0
KPA1 150550Z 20015KT 01/00 A3005 RMK A01 T00090002  RH  095%=      5-min Rain = 0
KPA1 150551Z 20016KT 01/00 A3005 RMK A01 T00090002  RH  095%=      5-min Rain = 0
KPA1 150552Z 20016KT 01/00 A3005 RMK A01 T00090002  RH  095%=      5-min Rain = 0
KPA1 150553Z 20017KT 01/00 A3005 RMK A01 T00090002  RH  095%=      5-min Rain = 0
KPA1 150554Z 19015KT 01/00 A3005 RMK A01 T00090002  RH  095%=      5-min Rain = 0
KPA1 150555Z 20016KT 01/00 A3005 RMK A01 T00090002  RH  095%=      5-min Rain = 0
KPA1 150556Z 20016KT 01/00 A3005 RMK A01 T00080002  RH  095%=      5-min Rain = 0
KPA1 150557Z 19015KT 01/00 A3005 RMK A01 T00080002  RH  095%=      5-min Rain = 0
KPA1 150558Z 20015KT 01/00 A3005 RMK A01 T00080002  RH  095%=      5-min Rain = 0
KPA1 150559Z 20017KT 01/00 A3005 RMK A01 T00080002  RH  095%=      5-min Rain = 0

Page generated in 0.0705 seconds.